<?xml version="1.0" encoding="UTF-8" standalone="no" ?>
<gpx xmlns="http://www.topografix.com/GPX/1/1" xmlns:xsi="http://www.w3.org/2001/XMLSchema-instance" xsi:schemaLocation="http://www.topografix.com/GPX/1/1 http://www.topografix.com/GPX/1/1/gpx.xsd" version="1.1" creator="VisuGPX - https://www.visugpx.com">
  <metadata>
    <name>tour de bretagne</name>
    <desc><![CDATA[tracé 2008]]></desc>
  </metadata>
  <trk>
    <name><![CDATA[fusion]]></name>
    <trkseg>
      <trkpt lat="48.5507" lon="-1.75624">
        <ele>-1000</ele>
        <time>2005-05-19T14:15:34Z</time>
      </trkpt>
      <trkpt lat="48.55059" lon="-1.75569">
        <ele>-1000</ele>
        <time>2005-05-19T14:15:34Z</time>
      </trkpt>
      <trkpt lat="48.55024" lon="-1.75542">
        <ele>-1000</ele>
        <time>2005-05-19T14:15:34Z</time>
      </trkpt>
      <trkpt lat="48.54995" lon="-1.75527">
        <ele>-1000</ele>
        <time>2005-05-19T14:15:34Z</time>
      </trkpt>
      <trkpt lat="48.54955" lon="-1.7555">
        <ele>-1000</ele>
        <time>2005-05-19T14:15:34Z</time>
      </trkpt>
      <trkpt lat="48.54967" lon="-1.75482">
        <ele>-1000</ele>
        <time>2005-05-19T14:15:34Z</time>
      </trkpt>
      <trkpt lat="48.54862" lon="-1.7548">
        <ele>-1000</ele>
        <time>2005-05-19T14:15:34Z</time>
      </trkpt>
      <trkpt lat="48.54851" lon="-1.75526">
        <ele>-1000</ele>
        <time>2005-05-19T14:15:34Z</time>
      </trkpt>
      <trkpt lat="48.54769" lon="-1.75503">
        <ele>-1000</ele>
        <time>2005-05-19T14:15:34Z</time>
      </trkpt>
      <trkpt lat="48.54763" lon="-1.75567">
        <ele>-1000</ele>
        <time>2005-05-19T14:15:34Z</time>
      </trkpt>
      <trkpt lat="48.54754" lon="-1.75692">
        <ele>-1000</ele>
        <time>2005-05-19T14:15:34Z</time>
      </trkpt>
      <trkpt lat="48.54719" lon="-1.75788">
        <ele>-1000</ele>
        <time>2005-05-19T14:15:34Z</time>
      </trkpt>
      <trkpt lat="48.54687" lon="-1.7586">
        <ele>-1000</ele>
        <time>2005-05-19T14:15:34Z</time>
      </trkpt>
      <trkpt lat="48.54682" lon="-1.75942">
        <ele>-1000</ele>
        <time>2005-05-19T14:15:34Z</time>
      </trkpt>
      <trkpt lat="48.54705" lon="-1.76044">
        <ele>-1000</ele>
        <time>2005-05-19T14:15:34Z</time>
      </trkpt>
      <trkpt lat="48.54765" lon="-1.76023">
        <ele>-1000</ele>
        <time>2005-05-19T14:15:34Z</time>
      </trkpt>
      <trkpt lat="48.5485" lon="-1.76007">
        <ele>-1000</ele>
        <time>2005-05-19T14:15:34Z</time>
      </trkpt>
      <trkpt lat="48.54904" lon="-1.76067">
        <ele>-1000</ele>
        <time>2005-05-19T14:15:34Z</time>
      </trkpt>
      <trkpt lat="48.54959" lon="-1.76055">
        <ele>-1000</ele>
        <time>2005-05-19T14:15:34Z</time>
      </trkpt>
      <trkpt lat="48.55022" lon="-1.76018">
        <ele>-1000</ele>
        <time>2005-05-19T14:15:34Z</time>
      </trkpt>
      <trkpt lat="48.55059" lon="-1.75995">
        <ele>-1000</ele>
        <time>2005-05-19T14:15:34Z</time>
      </trkpt>
      <trkpt lat="48.55112" lon="-1.75965">
        <ele>-1000</ele>
        <time>2005-05-19T14:15:34Z</time>
      </trkpt>
      <trkpt lat="48.55139" lon="-1.7596">
        <ele>-1000</ele>
        <time>2005-05-19T14:15:34Z</time>
      </trkpt>
      <trkpt lat="48.55154" lon="-1.75997">
        <ele>-1000</ele>
        <time>2005-05-19T14:15:34Z</time>
      </trkpt>
      <trkpt lat="48.55177" lon="-1.7603">
        <ele>-1000</ele>
        <time>2005-05-19T14:15:34Z</time>
      </trkpt>
      <trkpt lat="48.55196" lon="-1.76088">
        <ele>-1000</ele>
        <time>2005-05-19T14:15:34Z</time>
      </trkpt>
      <trkpt lat="48.55222" lon="-1.76159">
        <ele>-1000</ele>
        <time>2005-05-19T14:15:34Z</time>
      </trkpt>
      <trkpt lat="48.55239" lon="-1.76204">
        <ele>-1000</ele>
        <time>2005-05-19T14:15:34Z</time>
      </trkpt>
      <trkpt lat="48.55228" lon="-1.76249">
        <ele>-1000</ele>
        <time>2005-05-19T14:15:34Z</time>
      </trkpt>
      <trkpt lat="48.55179" lon="-1.76263">
        <ele>-1000</ele>
        <time>2005-05-19T14:15:34Z</time>
      </trkpt>
      <trkpt lat="48.55117" lon="-1.76257">
        <ele>-1000</ele>
        <time>2005-05-19T14:15:34Z</time>
      </trkpt>
      <trkpt lat="48.55065" lon="-1.76576">
        <ele>-1000</ele>
        <time>2005-05-19T14:15:34Z</time>
      </trkpt>
      <trkpt lat="48.55004" lon="-1.76873">
        <ele>-1000</ele>
        <time>2005-05-19T14:15:34Z</time>
      </trkpt>
      <trkpt lat="48.54937" lon="-1.77078">
        <ele>-1000</ele>
        <time>2005-05-19T14:15:34Z</time>
      </trkpt>
      <trkpt lat="48.54906" lon="-1.77158">
        <ele>-1000</ele>
        <time>2005-05-19T14:15:34Z</time>
      </trkpt>
      <trkpt lat="48.54784" lon="-1.77101">
        <ele>-1000</ele>
        <time>2005-05-19T14:15:34Z</time>
      </trkpt>
      <trkpt lat="48.54677" lon="-1.77051">
        <ele>-1000</ele>
        <time>2005-05-19T14:15:34Z</time>
      </trkpt>
      <trkpt lat="48.5455" lon="-1.77011">
        <ele>-1000</ele>
        <time>2005-05-19T14:15:34Z</time>
      </trkpt>
      <trkpt lat="48.54479" lon="-1.76973">
        <ele>-1000</ele>
        <time>2005-05-19T14:15:34Z</time>
      </trkpt>
      <trkpt lat="48.54262" lon="-1.76897">
        <ele>-1000</ele>
        <time>2005-05-19T14:15:34Z</time>
      </trkpt>
      <trkpt lat="48.54251" lon="-1.76976">
        <ele>-1000</ele>
        <time>2005-05-19T14:15:34Z</time>
      </trkpt>
      <trkpt lat="48.54257" lon="-1.77079">
        <ele>-1000</ele>
        <time>2005-05-19T14:15:34Z</time>
      </trkpt>
      <trkpt lat="48.54256" lon="-1.77184">
        <ele>-1000</ele>
        <time>2005-05-19T14:15:34Z</time>
      </trkpt>
      <trkpt lat="48.54349" lon="-1.77281">
        <ele>-1000</ele>
        <time>2005-05-19T14:15:34Z</time>
      </trkpt>
      <trkpt lat="48.5441" lon="-1.77328">
        <ele>-1000</ele>
        <time>2005-05-19T14:15:34Z</time>
      </trkpt>
      <trkpt lat="48.54458" lon="-1.77383">
        <ele>-1000</ele>
        <time>2005-05-19T14:15:34Z</time>
      </trkpt>
      <trkpt lat="48.5454" lon="-1.77414">
        <ele>-1000</ele>
        <time>2005-05-19T14:15:34Z</time>
      </trkpt>
      <trkpt lat="48.54649" lon="-1.77471">
        <ele>-1000</ele>
        <time>2005-05-19T14:15:34Z</time>
      </trkpt>
      <trkpt lat="48.54622" lon="-1.77594">
        <ele>-1000</ele>
        <time>2005-05-19T14:15:34Z</time>
      </trkpt>
      <trkpt lat="48.54651" lon="-1.7771">
        <ele>-1000</ele>
        <time>2005-05-19T14:15:34Z</time>
      </trkpt>
      <trkpt lat="48.54699" lon="-1.77812">
        <ele>-1000</ele>
        <time>2005-05-19T14:15:34Z</time>
      </trkpt>
      <trkpt lat="48.54707" lon="-1.77917">
        <ele>-1000</ele>
        <time>2005-05-19T14:15:34Z</time>
      </trkpt>
      <trkpt lat="48.54643" lon="-1.77909">
        <ele>-1000</ele>
        <time>2005-05-19T14:15:34Z</time>
      </trkpt>
      <trkpt lat="48.54572" lon="-1.77882">
        <ele>-1000</ele>
        <time>2005-05-19T14:15:34Z</time>
      </trkpt>
      <trkpt lat="48.54522" lon="-1.77886">
        <ele>-1000</ele>
        <time>2005-05-19T14:15:34Z</time>
      </trkpt>
      <trkpt lat="48.54456" lon="-1.77881">
        <ele>-1000</ele>
        <time>2005-05-19T14:15:34Z</time>
      </trkpt>
      <trkpt lat="48.54353" lon="-1.77855">
        <ele>-1000</ele>
        <time>2005-05-19T14:15:34Z</time>
      </trkpt>
      <trkpt lat="48.54253" lon="-1.77863">
        <ele>-1000</ele>
        <time>2005-05-19T14:15:34Z</time>
      </trkpt>
      <trkpt lat="48.5412" lon="-1.77735">
        <ele>-1000</ele>
        <time>2005-05-19T14:15:34Z</time>
      </trkpt>
      <trkpt lat="48.54056" lon="-1.77859">
        <ele>-1000</ele>
        <time>2005-05-19T14:15:34Z</time>
      </trkpt>
      <trkpt lat="48.54001" lon="-1.77976">
        <ele>-1000</ele>
        <time>2005-05-19T14:15:34Z</time>
      </trkpt>
      <trkpt lat="48.53945" lon="-1.7805">
        <ele>-1000</ele>
        <time>2005-05-19T14:15:34Z</time>
      </trkpt>
      <trkpt lat="48.53946" lon="-1.78221">
        <ele>-1000</ele>
        <time>2005-05-19T14:15:34Z</time>
      </trkpt>
      <trkpt lat="48.53934" lon="-1.78292">
        <ele>-1000</ele>
        <time>2005-05-19T14:15:34Z</time>
      </trkpt>
      <trkpt lat="48.54008" lon="-1.78352">
        <ele>-1000</ele>
        <time>2005-05-19T14:15:34Z</time>
      </trkpt>
      <trkpt lat="48.542" lon="-1.78492">
        <ele>-1000</ele>
        <time>2005-05-19T14:15:34Z</time>
      </trkpt>
      <trkpt lat="48.54403" lon="-1.78649">
        <ele>-1000</ele>
        <time>2005-05-19T14:15:34Z</time>
      </trkpt>
      <trkpt lat="48.54506" lon="-1.78748">
        <ele>-1000</ele>
        <time>2005-05-19T14:15:34Z</time>
      </trkpt>
      <trkpt lat="48.54623" lon="-1.7876">
        <ele>-1000</ele>
        <time>2005-05-19T14:15:34Z</time>
      </trkpt>
      <trkpt lat="48.54699" lon="-1.78759">
        <ele>-1000</ele>
        <time>2005-05-19T14:15:34Z</time>
      </trkpt>
      <trkpt lat="48.54763" lon="-1.78777">
        <ele>-1000</ele>
        <time>2005-05-19T14:15:34Z</time>
      </trkpt>
      <trkpt lat="48.54802" lon="-1.78877">
        <ele>-1000</ele>
        <time>2005-05-19T14:15:34Z</time>
      </trkpt>
      <trkpt lat="48.54837" lon="-1.78951">
        <ele>-1000</ele>
        <time>2005-05-19T14:15:34Z</time>
      </trkpt>
      <trkpt lat="48.54897" lon="-1.78962">
        <ele>-1000</ele>
        <time>2005-05-19T14:15:34Z</time>
      </trkpt>
      <trkpt lat="48.54947" lon="-1.78966">
        <ele>-1000</ele>
        <time>2005-05-19T14:15:34Z</time>
      </trkpt>
      <trkpt lat="48.55043" lon="-1.79065">
        <ele>-1000</ele>
        <time>2005-05-19T14:15:34Z</time>
      </trkpt>
      <trkpt lat="48.55133" lon="-1.79114">
        <ele>-1000</ele>
        <time>2005-05-19T14:15:34Z</time>
      </trkpt>
      <trkpt lat="48.55216" lon="-1.79123">
        <ele>-1000</ele>
        <time>2005-05-19T14:15:34Z</time>
      </trkpt>
      <trkpt lat="48.5536" lon="-1.79125">
        <ele>-1000</ele>
        <time>2005-05-19T14:15:34Z</time>
      </trkpt>
      <trkpt lat="48.55432" lon="-1.79314">
        <ele>-1000</ele>
        <time>2005-05-19T14:15:34Z</time>
      </trkpt>
      <trkpt lat="48.55295" lon="-1.79471">
        <ele>-1000</ele>
        <time>2005-05-19T14:15:34Z</time>
      </trkpt>
      <trkpt lat="48.55159" lon="-1.79623">
        <ele>-1000</ele>
        <time>2005-05-19T14:15:34Z</time>
      </trkpt>
      <trkpt lat="48.55034" lon="-1.79762">
        <ele>-1000</ele>
        <time>2005-05-19T14:15:34Z</time>
      </trkpt>
      <trkpt lat="48.54929" lon="-1.7991">
        <ele>-1000</ele>
        <time>2005-05-19T14:15:34Z</time>
      </trkpt>
      <trkpt lat="48.54865" lon="-1.79995">
        <ele>-1000</ele>
        <time>2005-05-19T14:15:34Z</time>
      </trkpt>
      <trkpt lat="48.54839" lon="-1.80252">
        <ele>-1000</ele>
        <time>2005-05-19T14:15:34Z</time>
      </trkpt>
      <trkpt lat="48.5483" lon="-1.80485">
        <ele>-1000</ele>
        <time>2005-05-19T14:15:34Z</time>
      </trkpt>
      <trkpt lat="48.54828" lon="-1.80654">
        <ele>-1000</ele>
        <time>2005-05-19T14:15:34Z</time>
      </trkpt>
      <trkpt lat="48.54825" lon="-1.80848">
        <ele>-1000</ele>
        <time>2005-05-19T14:15:34Z</time>
      </trkpt>
      <trkpt lat="48.54812" lon="-1.80963">
        <ele>-1000</ele>
        <time>2005-05-19T14:15:34Z</time>
      </trkpt>
      <trkpt lat="48.54842" lon="-1.81153">
        <ele>-1000</ele>
        <time>2005-05-19T14:15:34Z</time>
      </trkpt>
      <trkpt lat="48.55072" lon="-1.81041">
        <ele>-1000</ele>
        <time>2005-05-19T14:15:34Z</time>
      </trkpt>
      <trkpt lat="48.55285" lon="-1.80803">
        <ele>-1000</ele>
        <time>2005-05-19T14:15:34Z</time>
      </trkpt>
      <trkpt lat="48.55484" lon="-1.80548">
        <ele>-1000</ele>
        <time>2005-05-19T14:15:34Z</time>
      </trkpt>
      <trkpt lat="48.55617" lon="-1.80377">
        <ele>-1000</ele>
        <time>2005-05-19T14:15:34Z</time>
      </trkpt>
      <trkpt lat="48.55797" lon="-1.80156">
        <ele>-1000</ele>
        <time>2005-05-19T14:15:34Z</time>
      </trkpt>
      <trkpt lat="48.55979" lon="-1.80582">
        <ele>-1000</ele>
        <time>2005-05-19T14:15:34Z</time>
      </trkpt>
      <trkpt lat="48.56129" lon="-1.80942">
        <ele>-1000</ele>
        <time>2005-05-19T14:15:34Z</time>
      </trkpt>
      <trkpt lat="48.55948" lon="-1.81282">
        <ele>-1000</ele>
        <time>2005-05-19T14:15:34Z</time>
      </trkpt>
      <trkpt lat="48.55764" lon="-1.81626">
        <ele>-1000</ele>
        <time>2005-05-19T14:15:34Z</time>
      </trkpt>
      <trkpt lat="48.55653" lon="-1.8184">
        <ele>-1000</ele>
        <time>2005-05-19T14:15:34Z</time>
      </trkpt>
      <trkpt lat="48.55542" lon="-1.82041">
        <ele>-1000</ele>
        <time>2005-05-19T14:15:34Z</time>
      </trkpt>
      <trkpt lat="48.55433" lon="-1.8224">
        <ele>-1000</ele>
        <time>2005-05-19T14:15:34Z</time>
      </trkpt>
      <trkpt lat="48.55368" lon="-1.82365">
        <ele>-1000</ele>
        <time>2005-05-19T14:15:34Z</time>
      </trkpt>
      <trkpt lat="48.5535" lon="-1.82494">
        <ele>-1000</ele>
        <time>2005-05-19T14:15:34Z</time>
      </trkpt>
      <trkpt lat="48.5535" lon="-1.82681">
        <ele>-1000</ele>
        <time>2005-05-19T14:15:34Z</time>
      </trkpt>
      <trkpt lat="48.55484" lon="-1.82708">
        <ele>-1000</ele>
        <time>2005-05-19T14:15:34Z</time>
      </trkpt>
      <trkpt lat="48.55576" lon="-1.82725">
        <ele>-1000</ele>
        <time>2005-05-19T14:15:34Z</time>
      </trkpt>
      <trkpt lat="48.55585" lon="-1.82506">
        <ele>-1000</ele>
        <time>2005-05-19T14:15:34Z</time>
      </trkpt>
      <trkpt lat="48.55574" lon="-1.82419">
        <ele>-1000</ele>
        <time>2005-05-19T14:15:34Z</time>
      </trkpt>
      <trkpt lat="48.55648" lon="-1.82444">
        <ele>-1000</ele>
        <time>2005-05-19T14:15:34Z</time>
      </trkpt>
      <trkpt lat="48.55708" lon="-1.82474">
        <ele>-1000</ele>
        <time>2005-05-19T14:15:34Z</time>
      </trkpt>
      <trkpt lat="48.55748" lon="-1.82448">
        <ele>-1000</ele>
        <time>2005-05-19T14:15:34Z</time>
      </trkpt>
      <trkpt lat="48.55794" lon="-1.82474">
        <ele>-1000</ele>
        <time>2005-05-19T14:15:34Z</time>
      </trkpt>
      <trkpt lat="48.55878" lon="-1.82467">
        <ele>-1000</ele>
        <time>2005-05-19T14:15:34Z</time>
      </trkpt>
      <trkpt lat="48.55922" lon="-1.82531">
        <ele>-1000</ele>
        <time>2005-05-19T14:15:34Z</time>
      </trkpt>
      <trkpt lat="48.55983" lon="-1.82585">
        <ele>-1000</ele>
        <time>2005-05-19T14:15:34Z</time>
      </trkpt>
      <trkpt lat="48.56004" lon="-1.82607">
        <ele>-1000</ele>
        <time>2005-05-19T14:15:34Z</time>
      </trkpt>
      <trkpt lat="48.55996" lon="-1.8265">
        <ele>-1000</ele>
        <time>2005-05-19T14:15:34Z</time>
      </trkpt>
      <trkpt lat="48.56039" lon="-1.82705">
        <ele>-1000</ele>
        <time>2005-05-19T14:15:34Z</time>
      </trkpt>
      <trkpt lat="48.56092" lon="-1.82802">
        <ele>-1000</ele>
        <time>2005-05-19T14:15:34Z</time>
      </trkpt>
      <trkpt lat="48.56121" lon="-1.82935">
        <ele>-1000</ele>
        <time>2005-05-19T14:15:34Z</time>
      </trkpt>
      <trkpt lat="48.56273" lon="-1.82942">
        <ele>-1000</ele>
        <time>2005-05-19T14:15:34Z</time>
      </trkpt>
      <trkpt lat="48.56498" lon="-1.82954">
        <ele>-1000</ele>
        <time>2005-05-19T14:15:34Z</time>
      </trkpt>
      <trkpt lat="48.56478" lon="-1.83296">
        <ele>-1000</ele>
        <time>2005-05-19T14:15:34Z</time>
      </trkpt>
      <trkpt lat="48.56447" lon="-1.83563">
        <ele>-1000</ele>
        <time>2005-05-19T14:15:34Z</time>
      </trkpt>
      <trkpt lat="48.56423" lon="-1.8378">
        <ele>-1000</ele>
        <time>2005-05-19T14:15:34Z</time>
      </trkpt>
      <trkpt lat="48.56582" lon="-1.83845">
        <ele>-1000</ele>
        <time>2005-05-19T14:15:34Z</time>
      </trkpt>
      <trkpt lat="48.56773" lon="-1.83908">
        <ele>-1000</ele>
        <time>2005-05-19T14:15:34Z</time>
      </trkpt>
      <trkpt lat="48.56773" lon="-1.84211">
        <ele>-1000</ele>
        <time>2005-05-19T14:15:34Z</time>
      </trkpt>
      <trkpt lat="48.56772" lon="-1.84928">
        <ele>-1000</ele>
        <time>2005-05-19T14:15:34Z</time>
      </trkpt>
      <trkpt lat="48.56744" lon="-1.85124">
        <ele>-1000</ele>
        <time>2005-05-19T14:15:34Z</time>
      </trkpt>
      <trkpt lat="48.56752" lon="-1.85306">
        <ele>-1000</ele>
        <time>2005-05-19T14:15:34Z</time>
      </trkpt>
      <trkpt lat="48.56735" lon="-1.85567">
        <ele>-1000</ele>
        <time>2005-05-19T14:15:34Z</time>
      </trkpt>
      <trkpt lat="48.56663" lon="-1.85857">
        <ele>-1000</ele>
        <time>2005-05-19T14:15:34Z</time>
      </trkpt>
      <trkpt lat="48.5668" lon="-1.85952">
        <ele>-1000</ele>
        <time>2005-05-19T14:15:34Z</time>
      </trkpt>
      <trkpt lat="48.56565" lon="-1.85983">
        <ele>-1000</ele>
        <time>2005-05-19T14:15:34Z</time>
      </trkpt>
      <trkpt lat="48.56464" lon="-1.86079">
        <ele>-1000</ele>
        <time>2005-05-19T14:15:34Z</time>
      </trkpt>
      <trkpt lat="48.56424" lon="-1.86141">
        <ele>-1000</ele>
        <time>2005-05-19T14:15:34Z</time>
      </trkpt>
      <trkpt lat="48.56388" lon="-1.86235">
        <ele>-1000</ele>
        <time>2005-05-19T14:15:34Z</time>
      </trkpt>
      <trkpt lat="48.56387" lon="-1.86286">
        <ele>-1000</ele>
        <time>2005-05-19T14:15:34Z</time>
      </trkpt>
      <trkpt lat="48.56304" lon="-1.86506">
        <ele>-1000</ele>
        <time>2005-05-19T14:15:34Z</time>
      </trkpt>
      <trkpt lat="48.56175" lon="-1.86848">
        <ele>-1000</ele>
        <time>2005-05-19T14:15:34Z</time>
      </trkpt>
      <trkpt lat="48.5599" lon="-1.87271">
        <ele>-1000</ele>
        <time>2005-05-19T14:15:34Z</time>
      </trkpt>
      <trkpt lat="48.56111" lon="-1.87358">
        <ele>-1000</ele>
        <time>2005-05-19T14:15:34Z</time>
      </trkpt>
      <trkpt lat="48.56103" lon="-1.87493">
        <ele>-1000</ele>
        <time>2005-05-19T14:15:34Z</time>
      </trkpt>
      <trkpt lat="48.56073" lon="-1.87663">
        <ele>-1000</ele>
        <time>2005-05-19T14:15:34Z</time>
      </trkpt>
      <trkpt lat="48.56035" lon="-1.87847">
        <ele>-1000</ele>
        <time>2005-05-19T14:15:34Z</time>
      </trkpt>
      <trkpt lat="48.56046" lon="-1.88108">
        <ele>-1000</ele>
        <time>2005-05-19T14:15:34Z</time>
      </trkpt>
      <trkpt lat="48.56052" lon="-1.88302">
        <ele>-1000</ele>
        <time>2005-05-19T14:15:34Z</time>
      </trkpt>
      <trkpt lat="48.5606" lon="-1.88416">
        <ele>-1000</ele>
        <time>2005-05-19T14:15:34Z</time>
      </trkpt>
      <trkpt lat="48.55959" lon="-1.88438">
        <ele>-1000</ele>
        <time>2005-05-19T14:15:34Z</time>
      </trkpt>
      <trkpt lat="48.55857" lon="-1.88462">
        <ele>-1000</ele>
        <time>2005-05-19T14:15:34Z</time>
      </trkpt>
      <trkpt lat="48.55727" lon="-1.88451">
        <ele>-1000</ele>
        <time>2005-05-19T14:15:34Z</time>
      </trkpt>
      <trkpt lat="48.55662" lon="-1.88446">
        <ele>-1000</ele>
        <time>2005-05-19T14:15:34Z</time>
      </trkpt>
      <trkpt lat="48.5564" lon="-1.88434">
        <ele>-1000</ele>
        <time>2005-05-19T14:15:34Z</time>
      </trkpt>
      <trkpt lat="48.55613" lon="-1.88431">
        <ele>-1000</ele>
        <time>2005-05-19T14:15:34Z</time>
      </trkpt>
      <trkpt lat="48.55588" lon="-1.8847">
        <ele>-1000</ele>
        <time>2005-05-19T14:15:34Z</time>
      </trkpt>
      <trkpt lat="48.55559" lon="-1.88487">
        <ele>-1000</ele>
        <time>2005-05-19T14:15:34Z</time>
      </trkpt>
      <trkpt lat="48.55558" lon="-1.88344">
        <ele>-1000</ele>
        <time>2005-05-19T14:15:34Z</time>
      </trkpt>
      <trkpt lat="48.55523" lon="-1.88154">
        <ele>-1000</ele>
        <time>2005-05-19T14:15:34Z</time>
      </trkpt>
      <trkpt lat="48.55492" lon="-1.8799">
        <ele>-1000</ele>
        <time>2005-05-19T14:15:34Z</time>
      </trkpt>
      <trkpt lat="48.55426" lon="-1.87881">
        <ele>-1000</ele>
        <time>2005-05-19T14:15:34Z</time>
      </trkpt>
      <trkpt lat="48.5534" lon="-1.87791">
        <ele>-1000</ele>
        <time>2005-05-19T14:15:34Z</time>
      </trkpt>
      <trkpt lat="48.55257" lon="-1.87649">
        <ele>-1000</ele>
        <time>2005-05-19T14:15:34Z</time>
      </trkpt>
      <trkpt lat="48.55192" lon="-1.87487">
        <ele>-1000</ele>
        <time>2005-05-19T14:15:34Z</time>
      </trkpt>
      <trkpt lat="48.55134" lon="-1.87363">
        <ele>-1000</ele>
        <time>2005-05-19T14:15:34Z</time>
      </trkpt>
      <trkpt lat="48.55104" lon="-1.87303">
        <ele>-1000</ele>
        <time>2005-05-19T14:15:34Z</time>
      </trkpt>
      <trkpt lat="48.5505" lon="-1.87201">
        <ele>-1000</ele>
        <time>2005-05-19T14:15:34Z</time>
      </trkpt>
      <trkpt lat="48.55014" lon="-1.87255">
        <ele>-1000</ele>
        <time>2005-05-19T14:15:34Z</time>
      </trkpt>
      <trkpt lat="48.5496" lon="-1.87336">
        <ele>-1000</ele>
        <time>2005-05-19T14:15:34Z</time>
      </trkpt>
      <trkpt lat="48.54881" lon="-1.87545">
        <ele>-1000</ele>
        <time>2005-05-19T14:15:34Z</time>
      </trkpt>
      <trkpt lat="48.54784" lon="-1.87678">
        <ele>-1000</ele>
        <time>2005-05-19T14:15:34Z</time>
      </trkpt>
      <trkpt lat="48.54695" lon="-1.87739">
        <ele>-1000</ele>
        <time>2005-05-19T14:15:34Z</time>
      </trkpt>
      <trkpt lat="48.54656" lon="-1.87798">
        <ele>-1000</ele>
        <time>2005-05-19T14:15:34Z</time>
      </trkpt>
      <trkpt lat="48.54652" lon="-1.87901">
        <ele>-1000</ele>
        <time>2005-05-19T14:15:34Z</time>
      </trkpt>
      <trkpt lat="48.54632" lon="-1.87972">
        <ele>-1000</ele>
        <time>2005-05-19T14:15:34Z</time>
      </trkpt>
      <trkpt lat="48.54601" lon="-1.88085">
        <ele>-1000</ele>
        <time>2005-05-19T14:15:34Z</time>
      </trkpt>
      <trkpt lat="48.54582" lon="-1.88203">
        <ele>-1000</ele>
        <time>2005-05-19T14:15:34Z</time>
      </trkpt>
      <trkpt lat="48.54582" lon="-1.8839">
        <ele>-1000</ele>
        <time>2005-05-19T14:15:34Z</time>
      </trkpt>
      <trkpt lat="48.54644" lon="-1.88701">
        <ele>-1000</ele>
        <time>2005-05-19T14:15:34Z</time>
      </trkpt>
      <trkpt lat="48.54674" lon="-1.88886">
        <ele>-1000</ele>
        <time>2005-05-19T14:15:34Z</time>
      </trkpt>
      <trkpt lat="48.54785" lon="-1.89092">
        <ele>-1000</ele>
        <time>2005-05-19T14:15:34Z</time>
      </trkpt>
      <trkpt lat="48.54863" lon="-1.89234">
        <ele>-1000</ele>
        <time>2005-05-19T14:15:34Z</time>
      </trkpt>
      <trkpt lat="48.54907" lon="-1.89356">
        <ele>-1000</ele>
        <time>2005-05-19T14:15:34Z</time>
      </trkpt>
      <trkpt lat="48.54938" lon="-1.89442">
        <ele>-1000</ele>
        <time>2005-05-19T14:15:34Z</time>
      </trkpt>
      <trkpt lat="48.54937" lon="-1.89612">
        <ele>-1000</ele>
        <time>2005-05-19T14:15:34Z</time>
      </trkpt>
      <trkpt lat="48.54977" lon="-1.89691">
        <ele>-1000</ele>
        <time>2005-05-19T14:15:34Z</time>
      </trkpt>
      <trkpt lat="48.5497" lon="-1.89851">
        <ele>-1000</ele>
        <time>2005-05-19T14:15:34Z</time>
      </trkpt>
      <trkpt lat="48.54984" lon="-1.89994">
        <ele>-1000</ele>
        <time>2005-05-19T14:15:34Z</time>
      </trkpt>
      <trkpt lat="48.5504" lon="-1.90195">
        <ele>-1000</ele>
        <time>2005-05-19T14:15:34Z</time>
      </trkpt>
      <trkpt lat="48.55024" lon="-1.90371">
        <ele>-1000</ele>
        <time>2005-05-19T14:15:34Z</time>
      </trkpt>
      <trkpt lat="48.54953" lon="-1.9064">
        <ele>-1000</ele>
        <time>2005-05-19T14:15:34Z</time>
      </trkpt>
      <trkpt lat="48.55039" lon="-1.90674">
        <ele>-1000</ele>
        <time>2005-05-19T14:15:34Z</time>
      </trkpt>
      <trkpt lat="48.55145" lon="-1.90704">
        <ele>-1000</ele>
        <time>2005-05-19T14:15:34Z</time>
      </trkpt>
      <trkpt lat="48.55257" lon="-1.90572">
        <ele>-1000</ele>
        <time>2005-05-19T14:15:34Z</time>
      </trkpt>
      <trkpt lat="48.55304" lon="-1.90515">
        <ele>-1000</ele>
        <time>2005-05-19T14:15:34Z</time>
      </trkpt>
      <trkpt lat="48.55346" lon="-1.90419">
        <ele>-1000</ele>
        <time>2005-05-19T14:15:34Z</time>
      </trkpt>
      <trkpt lat="48.55488" lon="-1.90324">
        <ele>-1000</ele>
        <time>2005-05-19T14:15:34Z</time>
      </trkpt>
      <trkpt lat="48.55562" lon="-1.90235">
        <ele>-1000</ele>
        <time>2005-05-19T14:15:34Z</time>
      </trkpt>
      <trkpt lat="48.55603" lon="-1.90257">
        <ele>-1000</ele>
        <time>2005-05-19T14:15:34Z</time>
      </trkpt>
      <trkpt lat="48.55702" lon="-1.90307">
        <ele>-1000</ele>
        <time>2005-05-19T14:15:34Z</time>
      </trkpt>
      <trkpt lat="48.55689" lon="-1.90374">
        <ele>-1000</ele>
        <time>2005-05-19T14:15:34Z</time>
      </trkpt>
      <trkpt lat="48.5564" lon="-1.90521">
        <ele>-1000</ele>
        <time>2005-05-19T14:15:34Z</time>
      </trkpt>
      <trkpt lat="48.55757" lon="-1.90993">
        <ele>-1000</ele>
        <time>2005-05-19T14:15:34Z</time>
      </trkpt>
      <trkpt lat="48.55842" lon="-1.9139">
        <ele>-1000</ele>
        <time>2005-05-19T14:15:34Z</time>
      </trkpt>
      <trkpt lat="48.55973" lon="-1.91904">
        <ele>-1000</ele>
        <time>2005-05-19T14:15:34Z</time>
      </trkpt>
      <trkpt lat="48.56066" lon="-1.92297">
        <ele>-1000</ele>
        <time>2005-05-19T14:15:34Z</time>
      </trkpt>
      <trkpt lat="48.56157" lon="-1.92642">
        <ele>-1000</ele>
        <time>2005-05-19T14:15:34Z</time>
      </trkpt>
      <trkpt lat="48.56175" lon="-1.92695">
        <ele>-1000</ele>
        <time>2005-05-19T14:15:34Z</time>
      </trkpt>
      <trkpt lat="48.5597" lon="-1.92879">
        <ele>-1000</ele>
        <time>2005-05-19T14:15:34Z</time>
      </trkpt>
      <trkpt lat="48.55977" lon="-1.92978">
        <ele>-1000</ele>
        <time>2005-05-19T14:15:34Z</time>
      </trkpt>
      <trkpt lat="48.55988" lon="-1.93063">
        <ele>-1000</ele>
        <time>2005-05-19T14:15:34Z</time>
      </trkpt>
      <trkpt lat="48.55882" lon="-1.93127">
        <ele>-1000</ele>
        <time>2005-05-19T14:15:34Z</time>
      </trkpt>
      <trkpt lat="48.55844" lon="-1.93084">
        <ele>-1000</ele>
        <time>2005-05-19T14:15:34Z</time>
      </trkpt>
      <trkpt lat="48.5581" lon="-1.93037">
        <ele>-1000</ele>
        <time>2005-05-19T14:15:34Z</time>
      </trkpt>
      <trkpt lat="48.55709" lon="-1.92951">
        <ele>-1000</ele>
        <time>2005-05-19T14:15:34Z</time>
      </trkpt>
      <trkpt lat="48.55682" lon="-1.93022">
        <ele>-1000</ele>
        <time>2005-05-19T14:15:34Z</time>
      </trkpt>
      <trkpt lat="48.55667" lon="-1.92964">
        <ele>-1000</ele>
        <time>2005-05-19T14:15:34Z</time>
      </trkpt>
      <trkpt lat="48.55512" lon="-1.92837">
        <ele>-1000</ele>
        <time>2005-05-19T14:15:34Z</time>
      </trkpt>
      <trkpt lat="48.5538" lon="-1.92723">
        <ele>-1000</ele>
        <time>2005-05-19T14:15:34Z</time>
      </trkpt>
      <trkpt lat="48.55311" lon="-1.92695">
        <ele>-1000</ele>
        <time>2005-05-19T14:15:34Z</time>
      </trkpt>
      <trkpt lat="48.55216" lon="-1.92844">
        <ele>-1000</ele>
        <time>2005-05-19T14:15:34Z</time>
      </trkpt>
      <trkpt lat="48.55181" lon="-1.92924">
        <ele>-1000</ele>
        <time>2005-05-19T14:15:34Z</time>
      </trkpt>
      <trkpt lat="48.55129" lon="-1.93039">
        <ele>-1000</ele>
        <time>2005-05-19T14:15:34Z</time>
      </trkpt>
      <trkpt lat="48.55096" lon="-1.93187">
        <ele>-1000</ele>
        <time>2005-05-19T14:15:34Z</time>
      </trkpt>
      <trkpt lat="48.55122" lon="-1.93338">
        <ele>-1000</ele>
        <time>2005-05-19T14:15:34Z</time>
      </trkpt>
      <trkpt lat="48.55084" lon="-1.93333">
        <ele>-1000</ele>
        <time>2005-05-19T14:15:34Z</time>
      </trkpt>
      <trkpt lat="48.55048" lon="-1.9333">
        <ele>-1000</ele>
        <time>2005-05-19T14:15:34Z</time>
      </trkpt>
      <trkpt lat="48.5501" lon="-1.93363">
        <ele>-1000</ele>
        <time>2005-05-19T14:15:34Z</time>
      </trkpt>
      <trkpt lat="48.54946" lon="-1.9342">
        <ele>-1000</ele>
        <time>2005-05-19T14:15:34Z</time>
      </trkpt>
      <trkpt lat="48.54847" lon="-1.93512">
        <ele>-1000</ele>
        <time>2005-05-19T14:15:34Z</time>
      </trkpt>
      <trkpt lat="48.54751" lon="-1.93659">
        <ele>-1000</ele>
        <time>2005-05-19T14:15:34Z</time>
      </trkpt>
      <trkpt lat="48.54692" lon="-1.93756">
        <ele>-1000</ele>
        <time>2005-05-19T14:15:34Z</time>
      </trkpt>
      <trkpt lat="48.54662" lon="-1.93834">
        <ele>-1000</ele>
        <time>2005-05-19T14:15:34Z</time>
      </trkpt>
      <trkpt lat="48.54604" lon="-1.93898">
        <ele>-1000</ele>
        <time>2005-05-19T14:15:34Z</time>
      </trkpt>
      <trkpt lat="48.54533" lon="-1.93965">
        <ele>-1000</ele>
        <time>2005-05-19T14:15:34Z</time>
      </trkpt>
      <trkpt lat="48.54493" lon="-1.94056">
        <ele>-1000</ele>
        <time>2005-05-19T14:15:34Z</time>
      </trkpt>
      <trkpt lat="48.54577" lon="-1.94061">
        <ele>-1000</ele>
        <time>2005-05-19T14:15:34Z</time>
      </trkpt>
      <trkpt lat="48.54644" lon="-1.94124">
        <ele>-1000</ele>
        <time>2005-05-19T14:15:34Z</time>
      </trkpt>
      <trkpt lat="48.54685" lon="-1.9421">
        <ele>-1000</ele>
        <time>2005-05-19T14:15:34Z</time>
      </trkpt>
      <trkpt lat="48.54746" lon="-1.94367">
        <ele>-1000</ele>
        <time>2005-05-19T14:15:34Z</time>
      </trkpt>
      <trkpt lat="48.54812" lon="-1.9446">
        <ele>-1000</ele>
        <time>2005-05-19T14:15:34Z</time>
      </trkpt>
      <trkpt lat="48.54853" lon="-1.9451">
        <ele>-1000</ele>
        <time>2005-05-19T14:15:34Z</time>
      </trkpt>
      <trkpt lat="48.54919" lon="-1.94581">
        <ele>-1000</ele>
        <time>2005-05-19T14:15:34Z</time>
      </trkpt>
      <trkpt lat="48.54912" lon="-1.94672">
        <ele>-1000</ele>
        <time>2005-05-19T14:15:34Z</time>
      </trkpt>
      <trkpt lat="48.54908" lon="-1.9473">
        <ele>-1000</ele>
        <time>2005-05-19T14:15:34Z</time>
      </trkpt>
      <trkpt lat="48.54858" lon="-1.94713">
        <ele>-1000</ele>
        <time>2005-05-19T14:15:34Z</time>
      </trkpt>
      <trkpt lat="48.548" lon="-1.94677">
        <ele>-1000</ele>
        <time>2005-05-19T14:15:34Z</time>
      </trkpt>
      <trkpt lat="48.54723" lon="-1.94785">
        <ele>-1000</ele>
        <time>2005-05-19T14:15:34Z</time>
      </trkpt>
      <trkpt lat="48.54659" lon="-1.94864">
        <ele>-1000</ele>
        <time>2005-05-19T14:15:34Z</time>
      </trkpt>
      <trkpt lat="48.54577" lon="-1.94934">
        <ele>-1000</ele>
        <time>2005-05-19T14:15:34Z</time>
      </trkpt>
      <trkpt lat="48.54467" lon="-1.95013">
        <ele>-1000</ele>
        <time>2005-05-19T14:15:34Z</time>
      </trkpt>
      <trkpt lat="48.54591" lon="-1.95117">
        <ele>-1000</ele>
        <time>2005-05-19T14:15:34Z</time>
      </trkpt>
      <trkpt lat="48.54552" lon="-1.95194">
        <ele>-1000</ele>
        <time>2005-05-19T14:15:34Z</time>
      </trkpt>
      <trkpt lat="48.54516" lon="-1.95224">
        <ele>-1000</ele>
        <time>2005-05-19T14:15:34Z</time>
      </trkpt>
      <trkpt lat="48.54439" lon="-1.95208">
        <ele>-1000</ele>
        <time>2005-05-19T14:15:34Z</time>
      </trkpt>
      <trkpt lat="48.5439" lon="-1.95185">
        <ele>-1000</ele>
        <time>2005-05-19T14:15:34Z</time>
      </trkpt>
      <trkpt lat="48.54313" lon="-1.95173">
        <ele>-1000</ele>
        <time>2005-05-19T14:15:34Z</time>
      </trkpt>
      <trkpt lat="48.54323" lon="-1.95257">
        <ele>-1000</ele>
        <time>2005-05-19T14:15:34Z</time>
      </trkpt>
      <trkpt lat="48.54328" lon="-1.9536">
        <ele>-1000</ele>
        <time>2005-05-19T14:15:34Z</time>
      </trkpt>
      <trkpt lat="48.54313" lon="-1.95459">
        <ele>-1000</ele>
        <time>2005-05-19T14:15:34Z</time>
      </trkpt>
      <trkpt lat="48.54305" lon="-1.95568">
        <ele>-1000</ele>
        <time>2005-05-19T14:15:34Z</time>
      </trkpt>
      <trkpt lat="48.54359" lon="-1.95569">
        <ele>-1000</ele>
        <time>2005-05-19T14:15:34Z</time>
      </trkpt>
      <trkpt lat="48.54352" lon="-1.95733">
        <ele>-1000</ele>
        <time>2005-05-19T14:15:34Z</time>
      </trkpt>
      <trkpt lat="48.5428" lon="-1.95768">
        <ele>-1000</ele>
        <time>2005-05-19T14:15:34Z</time>
      </trkpt>
      <trkpt lat="48.54198" lon="-1.95921">
        <ele>-1000</ele>
        <time>2005-05-19T14:15:34Z</time>
      </trkpt>
      <trkpt lat="48.54164" lon="-1.96018">
        <ele>-1000</ele>
        <time>2005-05-19T14:15:34Z</time>
      </trkpt>
      <trkpt lat="48.54131" lon="-1.9614">
        <ele>-1000</ele>
        <time>2005-05-19T14:15:34Z</time>
      </trkpt>
      <trkpt lat="48.54079" lon="-1.96255">
        <ele>-1000</ele>
        <time>2005-05-19T14:15:34Z</time>
      </trkpt>
      <trkpt lat="48.54097" lon="-1.96327">
        <ele>-1000</ele>
        <time>2005-05-19T14:15:34Z</time>
      </trkpt>
      <trkpt lat="48.54088" lon="-1.96499">
        <ele>-1000</ele>
        <time>2005-05-19T14:15:34Z</time>
      </trkpt>
      <trkpt lat="48.54039" lon="-1.9658">
        <ele>-1000</ele>
        <time>2005-05-19T14:15:34Z</time>
      </trkpt>
      <trkpt lat="48.5398" lon="-1.96659">
        <ele>-1000</ele>
        <time>2005-05-19T14:15:34Z</time>
      </trkpt>
      <trkpt lat="48.53911" lon="-1.96699">
        <ele>-1000</ele>
        <time>2005-05-19T14:15:34Z</time>
      </trkpt>
      <trkpt lat="48.53891" lon="-1.96833">
        <ele>-1000</ele>
        <time>2005-05-19T14:15:34Z</time>
      </trkpt>
      <trkpt lat="48.53866" lon="-1.96858">
        <ele>-1000</ele>
        <time>2005-05-19T14:15:34Z</time>
      </trkpt>
      <trkpt lat="48.538" lon="-1.96908">
        <ele>-1000</ele>
        <time>2005-05-19T14:15:34Z</time>
      </trkpt>
      <trkpt lat="48.53751" lon="-1.96904">
        <ele>-1000</ele>
        <time>2005-05-19T14:15:34Z</time>
      </trkpt>
      <trkpt lat="48.53727" lon="-1.96908">
        <ele>-1000</ele>
        <time>2005-05-19T14:15:34Z</time>
      </trkpt>
      <trkpt lat="48.53725" lon="-1.96752">
        <ele>-1000</ele>
        <time>2005-05-19T14:15:34Z</time>
      </trkpt>
      <trkpt lat="48.53767" lon="-1.96676">
        <ele>-1000</ele>
        <time>2005-05-19T14:15:34Z</time>
      </trkpt>
      <trkpt lat="48.53695" lon="-1.96692">
        <ele>-1000</ele>
        <time>2005-05-19T14:15:34Z</time>
      </trkpt>
      <trkpt lat="48.53664" lon="-1.96648">
        <ele>-1000</ele>
        <time>2005-05-19T14:15:34Z</time>
      </trkpt>
      <trkpt lat="48.53653" lon="-1.9656">
        <ele>-1000</ele>
        <time>2005-05-19T14:15:34Z</time>
      </trkpt>
      <trkpt lat="48.53653" lon="-1.96465">
        <ele>-1000</ele>
        <time>2005-05-19T14:15:34Z</time>
      </trkpt>
      <trkpt lat="48.53661" lon="-1.96249">
        <ele>-1000</ele>
        <time>2005-05-19T14:15:34Z</time>
      </trkpt>
      <trkpt lat="48.53657" lon="-1.96106">
        <ele>-1000</ele>
        <time>2005-05-19T14:15:34Z</time>
      </trkpt>
      <trkpt lat="48.53643" lon="-1.96">
        <ele>-1000</ele>
        <time>2005-05-19T14:15:34Z</time>
      </trkpt>
      <trkpt lat="48.53655" lon="-1.95848">
        <ele>-1000</ele>
        <time>2005-05-19T14:15:34Z</time>
      </trkpt>
      <trkpt lat="48.53716" lon="-1.957">
        <ele>-1000</ele>
        <time>2005-05-19T14:15:34Z</time>
      </trkpt>
      <trkpt lat="48.53727" lon="-1.95622">
        <ele>-1000</ele>
        <time>2005-05-19T14:15:34Z</time>
      </trkpt>
      <trkpt lat="48.53733" lon="-1.95517">
        <ele>-1000</ele>
        <time>2005-05-19T14:15:34Z</time>
      </trkpt>
      <trkpt lat="48.53753" lon="-1.95445">
        <ele>-1000</ele>
        <time>2005-05-19T14:15:34Z</time>
      </trkpt>
      <trkpt lat="48.53785" lon="-1.95389">
        <ele>-1000</ele>
        <time>2005-05-19T14:15:34Z</time>
      </trkpt>
      <trkpt lat="48.53821" lon="-1.95334">
        <ele>-1000</ele>
        <time>2005-05-19T14:15:34Z</time>
      </trkpt>
      <trkpt lat="48.53858" lon="-1.95225">
        <ele>-1000</ele>
        <time>2005-05-19T14:15:34Z</time>
      </trkpt>
      <trkpt lat="48.5387" lon="-1.95062">
        <ele>-1000</ele>
        <time>2005-05-19T14:15:34Z</time>
      </trkpt>
      <trkpt lat="48.53902" lon="-1.94975">
        <ele>-1000</ele>
        <time>2005-05-19T14:15:34Z</time>
      </trkpt>
      <trkpt lat="48.53908" lon="-1.94866">
        <ele>-1000</ele>
        <time>2005-05-19T14:15:34Z</time>
      </trkpt>
      <trkpt lat="48.53951" lon="-1.94741">
        <ele>-1000</ele>
        <time>2005-05-19T14:15:34Z</time>
      </trkpt>
      <trkpt lat="48.5397" lon="-1.94685">
        <ele>-1000</ele>
        <time>2005-05-19T14:15:34Z</time>
      </trkpt>
      <trkpt lat="48.5401" lon="-1.94652">
        <ele>-1000</ele>
        <time>2005-05-19T14:15:34Z</time>
      </trkpt>
      <trkpt lat="48.54066" lon="-1.94594">
        <ele>-1000</ele>
        <time>2005-05-19T14:15:34Z</time>
      </trkpt>
      <trkpt lat="48.54026" lon="-1.94591">
        <ele>-1000</ele>
        <time>2005-05-19T14:15:34Z</time>
      </trkpt>
      <trkpt lat="48.53984" lon="-1.94602">
        <ele>-1000</ele>
        <time>2005-05-19T14:15:34Z</time>
      </trkpt>
      <trkpt lat="48.53943" lon="-1.94592">
        <ele>-1000</ele>
        <time>2005-05-19T14:15:34Z</time>
      </trkpt>
      <trkpt lat="48.53915" lon="-1.94557">
        <ele>-1000</ele>
        <time>2005-05-19T14:15:34Z</time>
      </trkpt>
      <trkpt lat="48.53965" lon="-1.94461">
        <ele>-1000</ele>
        <time>2005-05-19T14:15:34Z</time>
      </trkpt>
      <trkpt lat="48.54007" lon="-1.94322">
        <ele>-1000</ele>
        <time>2005-05-19T14:15:34Z</time>
      </trkpt>
      <trkpt lat="48.54039" lon="-1.94223">
        <ele>-1000</ele>
        <time>2005-05-19T14:15:34Z</time>
      </trkpt>
      <trkpt lat="48.53989" lon="-1.94166">
        <ele>-1000</ele>
        <time>2005-05-19T14:15:34Z</time>
      </trkpt>
      <trkpt lat="48.53951" lon="-1.94116">
        <ele>-1000</ele>
        <time>2005-05-19T14:15:34Z</time>
      </trkpt>
      <trkpt lat="48.53946" lon="-1.94069">
        <ele>-1000</ele>
        <time>2005-05-19T14:15:34Z</time>
      </trkpt>
      <trkpt lat="48.53985" lon="-1.93901">
        <ele>-1000</ele>
        <time>2005-05-19T14:15:34Z</time>
      </trkpt>
      <trkpt lat="48.54034" lon="-1.93676">
        <ele>-1000</ele>
        <time>2005-05-19T14:15:34Z</time>
      </trkpt>
      <trkpt lat="48.53929" lon="-1.93688">
        <ele>-1000</ele>
        <time>2005-05-19T14:15:34Z</time>
      </trkpt>
      <trkpt lat="48.53775" lon="-1.93764">
        <ele>-1000</ele>
        <time>2005-05-19T14:15:34Z</time>
      </trkpt>
      <trkpt lat="48.53707" lon="-1.93792">
        <ele>-1000</ele>
        <time>2005-05-19T14:15:34Z</time>
      </trkpt>
      <trkpt lat="48.53608" lon="-1.93815">
        <ele>-1000</ele>
        <time>2005-05-19T14:15:34Z</time>
      </trkpt>
      <trkpt lat="48.53468" lon="-1.93832">
        <ele>-1000</ele>
        <time>2005-05-19T14:15:34Z</time>
      </trkpt>
      <trkpt lat="48.5347" lon="-1.93937">
        <ele>-1000</ele>
        <time>2005-05-19T14:15:34Z</time>
      </trkpt>
      <trkpt lat="48.5347" lon="-1.94">
        <ele>-1000</ele>
        <time>2005-05-19T14:15:34Z</time>
      </trkpt>
      <trkpt lat="48.53437" lon="-1.94111">
        <ele>-1000</ele>
        <time>2005-05-19T14:15:34Z</time>
      </trkpt>
      <trkpt lat="48.53417" lon="-1.94234">
        <ele>-1000</ele>
        <time>2005-05-19T14:15:34Z</time>
      </trkpt>
      <trkpt lat="48.53364" lon="-1.94349">
        <ele>-1000</ele>
        <time>2005-05-19T14:15:34Z</time>
      </trkpt>
      <trkpt lat="48.53294" lon="-1.94373">
        <ele>-1000</ele>
        <time>2005-05-19T14:15:34Z</time>
      </trkpt>
      <trkpt lat="48.53252" lon="-1.94404">
        <ele>-1000</ele>
        <time>2005-05-19T14:15:34Z</time>
      </trkpt>
      <trkpt lat="48.53222" lon="-1.94412">
        <ele>-1000</ele>
        <time>2005-05-19T14:15:34Z</time>
      </trkpt>
      <trkpt lat="48.53157" lon="-1.94416">
        <ele>-1000</ele>
        <time>2005-05-19T14:15:34Z</time>
      </trkpt>
      <trkpt lat="48.53128" lon="-1.94604">
        <ele>-1000</ele>
        <time>2005-05-19T14:15:34Z</time>
      </trkpt>
      <trkpt lat="48.53006" lon="-1.94648">
        <ele>-1000</ele>
        <time>2005-05-19T14:15:34Z</time>
      </trkpt>
      <trkpt lat="48.52951" lon="-1.94618">
        <ele>-1000</ele>
        <time>2005-05-19T14:15:34Z</time>
      </trkpt>
      <trkpt lat="48.52915" lon="-1.94611">
        <ele>-1000</ele>
        <time>2005-05-19T14:15:34Z</time>
      </trkpt>
      <trkpt lat="48.5283" lon="-1.94623">
        <ele>-1000</ele>
        <time>2005-05-19T14:15:34Z</time>
      </trkpt>
      <trkpt lat="48.52833" lon="-1.94447">
        <ele>-1000</ele>
        <time>2005-05-19T14:15:34Z</time>
      </trkpt>
      <trkpt lat="48.52739" lon="-1.94501">
        <ele>-1000</ele>
        <time>2005-05-19T14:15:34Z</time>
      </trkpt>
      <trkpt lat="48.52741" lon="-1.9458">
        <ele>-1000</ele>
        <time>2005-05-19T14:15:34Z</time>
      </trkpt>
      <trkpt lat="48.52755" lon="-1.94855">
        <ele>-1000</ele>
        <time>2005-05-19T14:15:34Z</time>
      </trkpt>
      <trkpt lat="48.52768" lon="-1.94966">
        <ele>-1000</ele>
        <time>2005-05-19T14:15:34Z</time>
      </trkpt>
      <trkpt lat="48.52751" lon="-1.94981">
        <ele>-1000</ele>
        <time>2005-05-19T14:15:34Z</time>
      </trkpt>
      <trkpt lat="48.52732" lon="-1.95023">
        <ele>-1000</ele>
        <time>2005-05-19T14:15:34Z</time>
      </trkpt>
      <trkpt lat="48.52726" lon="-1.95091">
        <ele>-1000</ele>
        <time>2005-05-19T14:15:34Z</time>
      </trkpt>
      <trkpt lat="48.52689" lon="-1.95122">
        <ele>-1000</ele>
        <time>2005-05-19T14:15:34Z</time>
      </trkpt>
      <trkpt lat="48.52647" lon="-1.95158">
        <ele>-1000</ele>
        <time>2005-05-19T14:15:34Z</time>
      </trkpt>
      <trkpt lat="48.52583" lon="-1.9521">
        <ele>-1000</ele>
        <time>2005-05-19T14:15:34Z</time>
      </trkpt>
      <trkpt lat="48.5253" lon="-1.95253">
        <ele>-1000</ele>
        <time>2005-05-19T14:15:34Z</time>
      </trkpt>
      <trkpt lat="48.52527" lon="-1.95132">
        <ele>-1000</ele>
        <time>2005-05-19T14:15:34Z</time>
      </trkpt>
      <trkpt lat="48.52515" lon="-1.94982">
        <ele>-1000</ele>
        <time>2005-05-19T14:15:34Z</time>
      </trkpt>
      <trkpt lat="48.52485" lon="-1.94882">
        <ele>-1000</ele>
        <time>2005-05-19T14:15:34Z</time>
      </trkpt>
      <trkpt lat="48.52482" lon="-1.947">
        <ele>-1000</ele>
        <time>2005-05-19T14:15:34Z</time>
      </trkpt>
      <trkpt lat="48.52476" lon="-1.94573">
        <ele>-1000</ele>
        <time>2005-05-19T14:15:34Z</time>
      </trkpt>
      <trkpt lat="48.5238" lon="-1.94502">
        <ele>-1000</ele>
        <time>2005-05-19T14:15:34Z</time>
      </trkpt>
      <trkpt lat="48.52242" lon="-1.94413">
        <ele>-1000</ele>
        <time>2005-05-19T14:15:34Z</time>
      </trkpt>
      <trkpt lat="48.52124" lon="-1.94353">
        <ele>-1000</ele>
        <time>2005-05-19T14:15:34Z</time>
      </trkpt>
      <trkpt lat="48.52052" lon="-1.94266">
        <ele>-1000</ele>
        <time>2005-05-19T14:15:34Z</time>
      </trkpt>
      <trkpt lat="48.52007" lon="-1.94242">
        <ele>-1000</ele>
        <time>2005-05-19T14:15:34Z</time>
      </trkpt>
      <trkpt lat="48.51943" lon="-1.94259">
        <ele>-1000</ele>
        <time>2005-05-19T14:15:34Z</time>
      </trkpt>
      <trkpt lat="48.51835" lon="-1.94307">
        <ele>-1000</ele>
        <time>2005-05-19T14:15:34Z</time>
      </trkpt>
      <trkpt lat="48.51758" lon="-1.94349">
        <ele>-1000</ele>
        <time>2005-05-19T14:15:34Z</time>
      </trkpt>
      <trkpt lat="48.51687" lon="-1.94461">
        <ele>-1000</ele>
        <time>2005-05-19T14:15:34Z</time>
      </trkpt>
      <trkpt lat="48.5164" lon="-1.94526">
        <ele>-1000</ele>
        <time>2005-05-19T14:15:34Z</time>
      </trkpt>
      <trkpt lat="48.51674" lon="-1.94707">
        <ele>-1000</ele>
        <time>2005-05-19T14:15:34Z</time>
      </trkpt>
      <trkpt lat="48.51808" lon="-1.94696">
        <ele>-1000</ele>
        <time>2005-05-19T14:15:34Z</time>
      </trkpt>
      <trkpt lat="48.51773" lon="-1.94777">
        <ele>-1000</ele>
        <time>2005-05-19T14:15:34Z</time>
      </trkpt>
      <trkpt lat="48.51786" lon="-1.9487">
        <ele>-1000</ele>
        <time>2005-05-19T14:15:34Z</time>
      </trkpt>
      <trkpt lat="48.51798" lon="-1.94953">
        <ele>-1000</ele>
        <time>2005-05-19T14:15:34Z</time>
      </trkpt>
      <trkpt lat="48.51846" lon="-1.95">
        <ele>-1000</ele>
        <time>2005-05-19T14:15:34Z</time>
      </trkpt>
      <trkpt lat="48.51642" lon="-1.95107">
        <ele>-1000</ele>
        <time>2005-05-19T14:15:34Z</time>
      </trkpt>
      <trkpt lat="48.51569" lon="-1.95115">
        <ele>-1000</ele>
        <time>2005-05-19T14:15:34Z</time>
      </trkpt>
      <trkpt lat="48.51571" lon="-1.95231">
        <ele>-1000</ele>
        <time>2005-05-19T14:15:34Z</time>
      </trkpt>
      <trkpt lat="48.51617" lon="-1.95443">
        <ele>-1000</ele>
        <time>2005-05-19T14:15:34Z</time>
      </trkpt>
      <trkpt lat="48.51609" lon="-1.95536">
        <ele>-1000</ele>
        <time>2005-05-19T14:15:34Z</time>
      </trkpt>
      <trkpt lat="48.51598" lon="-1.95614">
        <ele>-1000</ele>
        <time>2005-05-19T14:15:34Z</time>
      </trkpt>
      <trkpt lat="48.51666" lon="-1.95622">
        <ele>-1000</ele>
        <time>2005-05-19T14:15:34Z</time>
      </trkpt>
      <trkpt lat="48.5175" lon="-1.95599">
        <ele>-1000</ele>
        <time>2005-05-19T14:15:34Z</time>
      </trkpt>
      <trkpt lat="48.51831" lon="-1.95615">
        <ele>-1000</ele>
        <time>2005-05-19T14:15:34Z</time>
      </trkpt>
      <trkpt lat="48.51896" lon="-1.95571">
        <ele>-1000</ele>
        <time>2005-05-19T14:15:34Z</time>
      </trkpt>
      <trkpt lat="48.51981" lon="-1.95518">
        <ele>-1000</ele>
        <time>2005-05-19T14:15:34Z</time>
      </trkpt>
      <trkpt lat="48.52018" lon="-1.95517">
        <ele>-1000</ele>
        <time>2005-05-19T14:15:34Z</time>
      </trkpt>
      <trkpt lat="48.52066" lon="-1.95641">
        <ele>-1000</ele>
        <time>2005-05-19T14:15:34Z</time>
      </trkpt>
      <trkpt lat="48.52145" lon="-1.95762">
        <ele>-1000</ele>
        <time>2005-05-19T14:15:34Z</time>
      </trkpt>
      <trkpt lat="48.52206" lon="-1.95883">
        <ele>-1000</ele>
        <time>2005-05-19T14:15:34Z</time>
      </trkpt>
      <trkpt lat="48.52284" lon="-1.96021">
        <ele>-1000</ele>
        <time>2005-05-19T14:15:34Z</time>
      </trkpt>
      <trkpt lat="48.52317" lon="-1.96146">
        <ele>-1000</ele>
        <time>2005-05-19T14:15:34Z</time>
      </trkpt>
      <trkpt lat="48.52391" lon="-1.96171">
        <ele>-1000</ele>
        <time>2005-05-19T14:15:34Z</time>
      </trkpt>
      <trkpt lat="48.52467" lon="-1.96223">
        <ele>-1000</ele>
        <time>2005-05-19T14:15:34Z</time>
      </trkpt>
      <trkpt lat="48.52539" lon="-1.96316">
        <ele>-1000</ele>
        <time>2005-05-19T14:15:34Z</time>
      </trkpt>
      <trkpt lat="48.52571" lon="-1.96384">
        <ele>-1000</ele>
        <time>2005-05-19T14:15:34Z</time>
      </trkpt>
      <trkpt lat="48.52569" lon="-1.96516">
        <ele>-1000</ele>
        <time>2005-05-19T14:15:34Z</time>
      </trkpt>
      <trkpt lat="48.52485" lon="-1.96615">
        <ele>-1000</ele>
        <time>2005-05-19T14:15:34Z</time>
      </trkpt>
      <trkpt lat="48.52357" lon="-1.96743">
        <ele>-1000</ele>
        <time>2005-05-19T14:15:34Z</time>
      </trkpt>
      <trkpt lat="48.52358" lon="-1.9682">
        <ele>-1000</ele>
        <time>2005-05-19T14:15:34Z</time>
      </trkpt>
      <trkpt lat="48.52299" lon="-1.96935">
        <ele>-1000</ele>
        <time>2005-05-19T14:15:34Z</time>
      </trkpt>
      <trkpt lat="48.52212" lon="-1.97026">
        <ele>-1000</ele>
        <time>2005-05-19T14:15:34Z</time>
      </trkpt>
      <trkpt lat="48.52125" lon="-1.9705">
        <ele>-1000</ele>
        <time>2005-05-19T14:15:34Z</time>
      </trkpt>
      <trkpt lat="48.52048" lon="-1.97002">
        <ele>-1000</ele>
        <time>2005-05-19T14:15:34Z</time>
      </trkpt>
      <trkpt lat="48.51961" lon="-1.96907">
        <ele>-1000</ele>
        <time>2005-05-19T14:15:34Z</time>
      </trkpt>
      <trkpt lat="48.5194" lon="-1.96832">
        <ele>-1000</ele>
        <time>2005-05-19T14:15:34Z</time>
      </trkpt>
      <trkpt lat="48.51886" lon="-1.96875">
        <ele>-1000</ele>
        <time>2005-05-19T14:15:34Z</time>
      </trkpt>
      <trkpt lat="48.51792" lon="-1.96898">
        <ele>-1000</ele>
        <time>2005-05-19T14:15:34Z</time>
      </trkpt>
      <trkpt lat="48.5169" lon="-1.96921">
        <ele>-1000</ele>
        <time>2005-05-19T14:15:34Z</time>
      </trkpt>
      <trkpt lat="48.51604" lon="-1.96945">
        <ele>-1000</ele>
        <time>2005-05-19T14:15:34Z</time>
      </trkpt>
      <trkpt lat="48.51511" lon="-1.96932">
        <ele>-1000</ele>
        <time>2005-05-19T14:15:34Z</time>
      </trkpt>
      <trkpt lat="48.51474" lon="-1.96894">
        <ele>-1000</ele>
        <time>2005-05-19T14:15:34Z</time>
      </trkpt>
      <trkpt lat="48.51431" lon="-1.96879">
        <ele>-1000</ele>
        <time>2005-05-19T14:15:34Z</time>
      </trkpt>
      <trkpt lat="48.51374" lon="-1.9691">
        <ele>-1000</ele>
        <time>2005-05-19T14:15:34Z</time>
      </trkpt>
      <trkpt lat="48.51325" lon="-1.96889">
        <ele>-1000</ele>
        <time>2005-05-19T14:15:34Z</time>
      </trkpt>
      <trkpt lat="48.51328" lon="-1.96823">
        <ele>-1000</ele>
        <time>2005-05-19T14:15:34Z</time>
      </trkpt>
      <trkpt lat="48.51297" lon="-1.96665">
        <ele>-1000</ele>
        <time>2005-05-19T14:15:34Z</time>
      </trkpt>
      <trkpt lat="48.51258" lon="-1.96578">
        <ele>-1000</ele>
        <time>2005-05-19T14:15:34Z</time>
      </trkpt>
      <trkpt lat="48.51196" lon="-1.9649">
        <ele>-1000</ele>
        <time>2005-05-19T14:15:34Z</time>
      </trkpt>
      <trkpt lat="48.5119" lon="-1.96552">
        <ele>-1000</ele>
        <time>2005-05-19T14:15:34Z</time>
      </trkpt>
      <trkpt lat="48.51218" lon="-1.96663">
        <ele>-1000</ele>
        <time>2005-05-19T14:15:34Z</time>
      </trkpt>
      <trkpt lat="48.5125" lon="-1.96791">
        <ele>-1000</ele>
        <time>2005-05-19T14:15:34Z</time>
      </trkpt>
      <trkpt lat="48.51229" lon="-1.96898">
        <ele>-1000</ele>
        <time>2005-05-19T14:15:34Z</time>
      </trkpt>
      <trkpt lat="48.51209" lon="-1.9698">
        <ele>-1000</ele>
        <time>2005-05-19T14:15:34Z</time>
      </trkpt>
      <trkpt lat="48.51223" lon="-1.97053">
        <ele>-1000</ele>
        <time>2005-05-19T14:15:34Z</time>
      </trkpt>
      <trkpt lat="48.5122" lon="-1.97173">
        <ele>-1000</ele>
        <time>2005-05-19T14:15:34Z</time>
      </trkpt>
      <trkpt lat="48.51236" lon="-1.97263">
        <ele>-1000</ele>
        <time>2005-05-19T14:15:34Z</time>
      </trkpt>
      <trkpt lat="48.5123" lon="-1.97424">
        <ele>-1000</ele>
        <time>2005-05-19T14:15:34Z</time>
      </trkpt>
      <trkpt lat="48.5121" lon="-1.97516">
        <ele>-1000</ele>
        <time>2005-05-19T14:15:34Z</time>
      </trkpt>
      <trkpt lat="48.51193" lon="-1.97597">
        <ele>-1000</ele>
        <time>2005-05-19T14:15:34Z</time>
      </trkpt>
      <trkpt lat="48.51128" lon="-1.97586">
        <ele>-1000</ele>
        <time>2005-05-19T14:15:34Z</time>
      </trkpt>
      <trkpt lat="48.51056" lon="-1.97615">
        <ele>-1000</ele>
        <time>2005-05-19T14:15:34Z</time>
      </trkpt>
      <trkpt lat="48.50991" lon="-1.97649">
        <ele>-1000</ele>
        <time>2005-05-19T14:15:34Z</time>
      </trkpt>
      <trkpt lat="48.50919" lon="-1.97641">
        <ele>-1000</ele>
        <time>2005-05-19T14:15:34Z</time>
      </trkpt>
      <trkpt lat="48.50864" lon="-1.97614">
        <ele>-1000</ele>
        <time>2005-05-19T14:15:34Z</time>
      </trkpt>
      <trkpt lat="48.50804" lon="-1.97616">
        <ele>-1000</ele>
        <time>2005-05-19T14:15:34Z</time>
      </trkpt>
      <trkpt lat="48.50718" lon="-1.9757">
        <ele>-1000</ele>
        <time>2005-05-19T14:15:34Z</time>
      </trkpt>
      <trkpt lat="48.5066" lon="-1.97512">
        <ele>-1000</ele>
        <time>2005-05-19T14:15:34Z</time>
      </trkpt>
      <trkpt lat="48.5063" lon="-1.97405">
        <ele>-1000</ele>
        <time>2005-05-19T14:15:34Z</time>
      </trkpt>
      <trkpt lat="48.50607" lon="-1.97303">
        <ele>-1000</ele>
        <time>2005-05-19T14:15:34Z</time>
      </trkpt>
      <trkpt lat="48.50518" lon="-1.97324">
        <ele>-1000</ele>
        <time>2005-05-19T14:15:34Z</time>
      </trkpt>
      <trkpt lat="48.50426" lon="-1.97353">
        <ele>-1000</ele>
        <time>2005-05-19T14:15:34Z</time>
      </trkpt>
      <trkpt lat="48.50335" lon="-1.97396">
        <ele>-1000</ele>
        <time>2005-05-19T14:15:34Z</time>
      </trkpt>
      <trkpt lat="48.5029" lon="-1.97438">
        <ele>-1000</ele>
        <time>2005-05-19T14:15:34Z</time>
      </trkpt>
      <trkpt lat="48.50261" lon="-1.97508">
        <ele>-1000</ele>
        <time>2005-05-19T14:15:34Z</time>
      </trkpt>
      <trkpt lat="48.50196" lon="-1.97548">
        <ele>-1000</ele>
        <time>2005-05-19T14:15:34Z</time>
      </trkpt>
      <trkpt lat="48.50163" lon="-1.97617">
        <ele>-1000</ele>
        <time>2005-05-19T14:15:34Z</time>
      </trkpt>
      <trkpt lat="48.50111" lon="-1.97659">
        <ele>-1000</ele>
        <time>2005-05-19T14:15:34Z</time>
      </trkpt>
      <trkpt lat="48.50105" lon="-1.97702">
        <ele>-1000</ele>
        <time>2005-05-19T14:15:34Z</time>
      </trkpt>
      <trkpt lat="48.50053" lon="-1.97691">
        <ele>-1000</ele>
        <time>2005-05-19T14:15:34Z</time>
      </trkpt>
      <trkpt lat="48.50014" lon="-1.97769">
        <ele>-1000</ele>
        <time>2005-05-19T14:15:34Z</time>
      </trkpt>
      <trkpt lat="48.49996" lon="-1.97818">
        <ele>-1000</ele>
        <time>2005-05-19T14:15:34Z</time>
      </trkpt>
      <trkpt lat="48.49968" lon="-1.97865">
        <ele>-1000</ele>
        <time>2005-05-19T14:15:34Z</time>
      </trkpt>
      <trkpt lat="48.49937" lon="-1.97941">
        <ele>-1000</ele>
        <time>2005-05-19T14:15:34Z</time>
      </trkpt>
      <trkpt lat="48.49897" lon="-1.9792">
        <ele>-1000</ele>
        <time>2005-05-19T14:15:34Z</time>
      </trkpt>
      <trkpt lat="48.4989" lon="-1.97855">
        <ele>-1000</ele>
        <time>2005-05-19T14:15:34Z</time>
      </trkpt>
      <trkpt lat="48.49875" lon="-1.97744">
        <ele>-1000</ele>
        <time>2005-05-19T14:15:34Z</time>
      </trkpt>
      <trkpt lat="48.49899" lon="-1.97681">
        <ele>-1000</ele>
        <time>2005-05-19T14:15:34Z</time>
      </trkpt>
      <trkpt lat="48.49938" lon="-1.9766">
        <ele>-1000</ele>
        <time>2005-05-19T14:15:34Z</time>
      </trkpt>
      <trkpt lat="48.49925" lon="-1.97611">
        <ele>-1000</ele>
        <time>2005-05-19T14:15:34Z</time>
      </trkpt>
      <trkpt lat="48.49886" lon="-1.97588">
        <ele>-1000</ele>
        <time>2005-05-19T14:15:34Z</time>
      </trkpt>
      <trkpt lat="48.49839" lon="-1.97562">
        <ele>-1000</ele>
        <time>2005-05-19T14:15:34Z</time>
      </trkpt>
      <trkpt lat="48.49787" lon="-1.97539">
        <ele>-1000</ele>
        <time>2005-05-19T14:15:34Z</time>
      </trkpt>
      <trkpt lat="48.49769" lon="-1.97577">
        <ele>-1000</ele>
        <time>2005-05-19T14:15:34Z</time>
      </trkpt>
      <trkpt lat="48.49817" lon="-1.97624">
        <ele>-1000</ele>
        <time>2005-05-19T14:15:34Z</time>
      </trkpt>
      <trkpt lat="48.49821" lon="-1.97722">
        <ele>-1000</ele>
        <time>2005-05-19T14:15:34Z</time>
      </trkpt>
      <trkpt lat="48.49813" lon="-1.97811">
        <ele>-1000</ele>
        <time>2005-05-19T14:15:34Z</time>
      </trkpt>
      <trkpt lat="48.49828" lon="-1.97941">
        <ele>-1000</ele>
        <time>2005-05-19T14:15:34Z</time>
      </trkpt>
      <trkpt lat="48.49841" lon="-1.98011">
        <ele>-1000</ele>
        <time>2005-05-19T14:15:34Z</time>
      </trkpt>
      <trkpt lat="48.49806" lon="-1.97993">
        <ele>-1000</ele>
        <time>2005-05-19T14:15:34Z</time>
      </trkpt>
      <trkpt lat="48.49753" lon="-1.97995">
        <ele>-1000</ele>
        <time>2005-05-19T14:15:34Z</time>
      </trkpt>
      <trkpt lat="48.49691" lon="-1.9799">
        <ele>-1000</ele>
        <time>2005-05-19T14:15:34Z</time>
      </trkpt>
      <trkpt lat="48.49643" lon="-1.97973">
        <ele>-1000</ele>
        <time>2005-05-19T14:15:34Z</time>
      </trkpt>
      <trkpt lat="48.49571" lon="-1.9799">
        <ele>-1000</ele>
        <time>2005-05-19T14:15:34Z</time>
      </trkpt>
      <trkpt lat="48.4954" lon="-1.98022">
        <ele>-1000</ele>
        <time>2005-05-19T14:15:34Z</time>
      </trkpt>
      <trkpt lat="48.49522" lon="-1.97912">
        <ele>-1000</ele>
        <time>2005-05-19T14:15:34Z</time>
      </trkpt>
      <trkpt lat="48.49597" lon="-1.97882">
        <ele>-1000</ele>
        <time>2005-05-19T14:15:34Z</time>
      </trkpt>
      <trkpt lat="48.49554" lon="-1.97678">
        <ele>-1000</ele>
        <time>2005-05-19T14:15:34Z</time>
      </trkpt>
      <trkpt lat="48.49445" lon="-1.97748">
        <ele>-1000</ele>
        <time>2005-05-19T14:15:34Z</time>
      </trkpt>
      <trkpt lat="48.49368" lon="-1.97965">
        <ele>-1000</ele>
        <time>2005-05-19T14:15:34Z</time>
      </trkpt>
      <trkpt lat="48.49332" lon="-1.98042">
        <ele>-1000</ele>
        <time>2005-05-19T14:15:34Z</time>
      </trkpt>
      <trkpt lat="48.49318" lon="-1.98077">
        <ele>-1000</ele>
        <time>2005-05-19T14:15:34Z</time>
      </trkpt>
      <trkpt lat="48.49309" lon="-1.98133">
        <ele>-1000</ele>
        <time>2005-05-19T14:15:34Z</time>
      </trkpt>
      <trkpt lat="48.49346" lon="-1.98214">
        <ele>-1000</ele>
        <time>2005-05-19T14:15:34Z</time>
      </trkpt>
      <trkpt lat="48.49356" lon="-1.98277">
        <ele>-1000</ele>
        <time>2005-05-19T14:15:34Z</time>
      </trkpt>
      <trkpt lat="48.4939" lon="-1.98344">
        <ele>-1000</ele>
        <time>2005-05-19T14:15:34Z</time>
      </trkpt>
      <trkpt lat="48.49429" lon="-1.98387">
        <ele>-1000</ele>
        <time>2005-05-19T14:15:34Z</time>
      </trkpt>
      <trkpt lat="48.49472" lon="-1.98441">
        <ele>-1000</ele>
        <time>2005-05-19T14:15:34Z</time>
      </trkpt>
      <trkpt lat="48.49524" lon="-1.98467">
        <ele>-1000</ele>
        <time>2005-05-19T14:15:34Z</time>
      </trkpt>
      <trkpt lat="48.49575" lon="-1.98489">
        <ele>-1000</ele>
        <time>2005-05-19T14:15:34Z</time>
      </trkpt>
      <trkpt lat="48.49632" lon="-1.98515">
        <ele>-1000</ele>
        <time>2005-05-19T14:15:34Z</time>
      </trkpt>
      <trkpt lat="48.49678" lon="-1.98543">
        <ele>-1000</ele>
        <time>2005-05-19T14:15:34Z</time>
      </trkpt>
      <trkpt lat="48.49705" lon="-1.98589">
        <ele>-1000</ele>
        <time>2005-05-19T14:15:34Z</time>
      </trkpt>
      <trkpt lat="48.49695" lon="-1.98664">
        <ele>-1000</ele>
        <time>2005-05-19T14:15:34Z</time>
      </trkpt>
      <trkpt lat="48.49678" lon="-1.98749">
        <ele>-1000</ele>
        <time>2005-05-19T14:15:34Z</time>
      </trkpt>
      <trkpt lat="48.49668" lon="-1.98823">
        <ele>-1000</ele>
        <time>2005-05-19T14:15:34Z</time>
      </trkpt>
      <trkpt lat="48.49663" lon="-1.98916">
        <ele>-1000</ele>
        <time>2005-05-19T14:15:34Z</time>
      </trkpt>
      <trkpt lat="48.49671" lon="-1.99003">
        <ele>-1000</ele>
        <time>2005-05-19T14:15:34Z</time>
      </trkpt>
      <trkpt lat="48.49687" lon="-1.99087">
        <ele>-1000</ele>
        <time>2005-05-19T14:15:34Z</time>
      </trkpt>
      <trkpt lat="48.49703" lon="-1.99171">
        <ele>-1000</ele>
        <time>2005-05-19T14:15:34Z</time>
      </trkpt>
      <trkpt lat="48.49695" lon="-1.99267">
        <ele>-1000</ele>
        <time>2005-05-19T14:15:34Z</time>
      </trkpt>
      <trkpt lat="48.49678" lon="-1.99323">
        <ele>-1000</ele>
        <time>2005-05-19T14:15:34Z</time>
      </trkpt>
      <trkpt lat="48.49617" lon="-1.99325">
        <ele>-1000</ele>
        <time>2005-05-19T14:15:34Z</time>
      </trkpt>
      <trkpt lat="48.49543" lon="-1.99291">
        <ele>-1000</ele>
        <time>2005-05-19T14:15:34Z</time>
      </trkpt>
      <trkpt lat="48.49535" lon="-1.99242">
        <ele>-1000</ele>
        <time>2005-05-19T14:15:34Z</time>
      </trkpt>
      <trkpt lat="48.49533" lon="-1.99199">
        <ele>-1000</ele>
        <time>2005-05-19T14:15:34Z</time>
      </trkpt>
      <trkpt lat="48.49443" lon="-1.99213">
        <ele>-1000</ele>
        <time>2005-05-19T14:15:34Z</time>
      </trkpt>
      <trkpt lat="48.49395" lon="-1.99235">
        <ele>-1000</ele>
        <time>2005-05-19T14:15:34Z</time>
      </trkpt>
      <trkpt lat="48.49352" lon="-1.99292">
        <ele>-1000</ele>
        <time>2005-05-19T14:15:34Z</time>
      </trkpt>
      <trkpt lat="48.49299" lon="-1.99338">
        <ele>-1000</ele>
        <time>2005-05-19T14:15:34Z</time>
      </trkpt>
      <trkpt lat="48.49269" lon="-1.99418">
        <ele>-1000</ele>
        <time>2005-05-19T14:15:34Z</time>
      </trkpt>
      <trkpt lat="48.49229" lon="-1.99382">
        <ele>-1000</ele>
        <time>2005-05-19T14:15:34Z</time>
      </trkpt>
      <trkpt lat="48.49168" lon="-1.9936">
        <ele>-1000</ele>
        <time>2005-05-19T14:15:34Z</time>
      </trkpt>
      <trkpt lat="48.49132" lon="-1.99307">
        <ele>-1000</ele>
        <time>2005-05-19T14:15:34Z</time>
      </trkpt>
      <trkpt lat="48.49082" lon="-1.99263">
        <ele>-1000</ele>
        <time>2005-05-19T14:15:34Z</time>
      </trkpt>
      <trkpt lat="48.49055" lon="-1.99207">
        <ele>-1000</ele>
        <time>2005-05-19T14:15:34Z</time>
      </trkpt>
      <trkpt lat="48.49023" lon="-1.99236">
        <ele>-1000</ele>
        <time>2005-05-19T14:15:34Z</time>
      </trkpt>
      <trkpt lat="48.49044" lon="-1.99297">
        <ele>-1000</ele>
        <time>2005-05-19T14:15:34Z</time>
      </trkpt>
      <trkpt lat="48.49106" lon="-1.99334">
        <ele>-1000</ele>
        <time>2005-05-19T14:15:34Z</time>
      </trkpt>
      <trkpt lat="48.49165" lon="-1.99396">
        <ele>-1000</ele>
        <time>2005-05-19T14:15:34Z</time>
      </trkpt>
      <trkpt lat="48.49218" lon="-1.99476">
        <ele>-1000</ele>
        <time>2005-05-19T14:15:34Z</time>
      </trkpt>
      <trkpt lat="48.49274" lon="-1.99531">
        <ele>-1000</ele>
        <time>2005-05-19T14:15:34Z</time>
      </trkpt>
      <trkpt lat="48.49257" lon="-1.99623">
        <ele>-1000</ele>
        <time>2005-05-19T14:15:34Z</time>
      </trkpt>
      <trkpt lat="48.49231" lon="-1.99714">
        <ele>-1000</ele>
        <time>2005-05-19T14:15:34Z</time>
      </trkpt>
      <trkpt lat="48.49205" lon="-1.99806">
        <ele>-1000</ele>
        <time>2005-05-19T14:15:34Z</time>
      </trkpt>
      <trkpt lat="48.49204" lon="-1.99884">
        <ele>-1000</ele>
        <time>2005-05-19T14:15:34Z</time>
      </trkpt>
      <trkpt lat="48.49211" lon="-1.99971">
        <ele>-1000</ele>
        <time>2005-05-19T14:15:34Z</time>
      </trkpt>
      <trkpt lat="48.49183" lon="-2.00015">
        <ele>-1000</ele>
        <time>2005-05-19T14:15:34Z</time>
      </trkpt>
      <trkpt lat="48.49101" lon="-2.00048">
        <ele>-1000</ele>
        <time>2005-05-19T14:15:34Z</time>
      </trkpt>
      <trkpt lat="48.49056" lon="-2.00091">
        <ele>-1000</ele>
        <time>2005-05-19T14:15:34Z</time>
      </trkpt>
      <trkpt lat="48.49009" lon="-2.00077">
        <ele>-1000</ele>
        <time>2005-05-19T14:15:34Z</time>
      </trkpt>
      <trkpt lat="48.4894" lon="-2.00049">
        <ele>-1000</ele>
        <time>2005-05-19T14:15:34Z</time>
      </trkpt>
      <trkpt lat="48.48852" lon="-1.99988">
        <ele>-1000</ele>
        <time>2005-05-19T14:15:34Z</time>
      </trkpt>
      <trkpt lat="48.48894" lon="-1.99876">
        <ele>-1000</ele>
        <time>2005-05-19T14:15:34Z</time>
      </trkpt>
      <trkpt lat="48.48909" lon="-1.99744">
        <ele>-1000</ele>
        <time>2005-05-19T14:15:34Z</time>
      </trkpt>
      <trkpt lat="48.48879" lon="-1.99631">
        <ele>-1000</ele>
        <time>2005-05-19T14:15:34Z</time>
      </trkpt>
      <trkpt lat="48.48884" lon="-1.9957">
        <ele>-1000</ele>
        <time>2005-05-19T14:15:34Z</time>
      </trkpt>
      <trkpt lat="48.48813" lon="-1.99608">
        <ele>-1000</ele>
        <time>2005-05-19T14:15:34Z</time>
      </trkpt>
      <trkpt lat="48.48702" lon="-1.99634">
        <ele>-1000</ele>
        <time>2005-05-19T14:15:34Z</time>
      </trkpt>
      <trkpt lat="48.4862" lon="-1.99609">
        <ele>-1000</ele>
        <time>2005-05-19T14:15:34Z</time>
      </trkpt>
      <trkpt lat="48.48507" lon="-1.99543">
        <ele>-1000</ele>
        <time>2005-05-19T14:15:34Z</time>
      </trkpt>
      <trkpt lat="48.48455" lon="-1.99448">
        <ele>-1000</ele>
        <time>2005-05-19T14:15:34Z</time>
      </trkpt>
      <trkpt lat="48.48333" lon="-1.9941">
        <ele>-1000</ele>
        <time>2005-05-19T14:15:34Z</time>
      </trkpt>
      <trkpt lat="48.48312" lon="-1.99462">
        <ele>-1000</ele>
        <time>2005-05-19T14:15:34Z</time>
      </trkpt>
      <trkpt lat="48.48291" lon="-1.99525">
        <ele>-1000</ele>
        <time>2005-05-19T14:15:34Z</time>
      </trkpt>
      <trkpt lat="48.48276" lon="-1.99533">
        <ele>-1000</ele>
        <time>2005-05-19T14:15:34Z</time>
      </trkpt>
      <trkpt lat="48.4826" lon="-1.99585">
        <ele>-1000</ele>
        <time>2005-05-19T14:15:34Z</time>
      </trkpt>
      <trkpt lat="48.48239" lon="-1.99643">
        <ele>-1000</ele>
        <time>2005-05-19T14:15:34Z</time>
      </trkpt>
      <trkpt lat="48.48198" lon="-1.99692">
        <ele>-1000</ele>
        <time>2005-05-19T14:15:34Z</time>
      </trkpt>
      <trkpt lat="48.48162" lon="-1.99639">
        <ele>-1000</ele>
        <time>2005-05-19T14:15:34Z</time>
      </trkpt>
      <trkpt lat="48.48124" lon="-1.997">
        <ele>-1000</ele>
        <time>2005-05-19T14:15:34Z</time>
      </trkpt>
      <trkpt lat="48.48083" lon="-1.99795">
        <ele>-1000</ele>
        <time>2005-05-19T14:15:34Z</time>
      </trkpt>
      <trkpt lat="48.48131" lon="-1.99868">
        <ele>-1000</ele>
        <time>2005-05-19T14:15:34Z</time>
      </trkpt>
      <trkpt lat="48.48129" lon="-1.99987">
        <ele>-1000</ele>
        <time>2005-05-19T14:15:34Z</time>
      </trkpt>
      <trkpt lat="48.48066" lon="-2.00012">
        <ele>-1000</ele>
        <time>2005-05-19T14:15:34Z</time>
      </trkpt>
      <trkpt lat="48.48034" lon="-2.00044">
        <ele>-1000</ele>
        <time>2005-05-19T14:15:34Z</time>
      </trkpt>
      <trkpt lat="48.47986" lon="-2.00081">
        <ele>-1000</ele>
        <time>2005-05-19T14:15:34Z</time>
      </trkpt>
      <trkpt lat="48.47931" lon="-2.00095">
        <ele>-1000</ele>
        <time>2005-05-19T14:15:34Z</time>
      </trkpt>
      <trkpt lat="48.47889" lon="-2.00057">
        <ele>-1000</ele>
        <time>2005-05-19T14:15:34Z</time>
      </trkpt>
      <trkpt lat="48.47839" lon="-2.00038">
        <ele>-1000</ele>
        <time>2005-05-19T14:15:34Z</time>
      </trkpt>
      <trkpt lat="48.47799" lon="-2.00008">
        <ele>-1000</ele>
        <time>2005-05-19T14:15:34Z</time>
      </trkpt>
      <trkpt lat="48.47774" lon="-1.99973">
        <ele>-1000</ele>
        <time>2005-05-19T14:15:34Z</time>
      </trkpt>
      <trkpt lat="48.47743" lon="-1.99951">
        <ele>-1000</ele>
        <time>2005-05-19T14:15:34Z</time>
      </trkpt>
      <trkpt lat="48.47732" lon="-2">
        <ele>-1000</ele>
        <time>2005-05-19T14:15:34Z</time>
      </trkpt>
      <trkpt lat="48.47677" lon="-2.00021">
        <ele>-1000</ele>
        <time>2005-05-19T14:15:34Z</time>
      </trkpt>
      <trkpt lat="48.47629" lon="-2.00035">
        <ele>-1000</ele>
        <time>2005-05-19T14:15:34Z</time>
      </trkpt>
      <trkpt lat="48.47574" lon="-2.00052">
        <ele>-1000</ele>
        <time>2005-05-19T14:15:34Z</time>
      </trkpt>
      <trkpt lat="48.47532" lon="-2.00053">
        <ele>-1000</ele>
        <time>2005-05-19T14:15:34Z</time>
      </trkpt>
      <trkpt lat="48.47465" lon="-2.00053">
        <ele>-1000</ele>
        <time>2005-05-19T14:15:34Z</time>
      </trkpt>
      <trkpt lat="48.47442" lon="-2.00102">
        <ele>-1000</ele>
        <time>2005-05-19T14:15:34Z</time>
      </trkpt>
      <trkpt lat="48.4736" lon="-2.00088">
        <ele>-1000</ele>
        <time>2005-05-19T14:15:34Z</time>
      </trkpt>
      <trkpt lat="48.47343" lon="-2.00134">
        <ele>-1000</ele>
        <time>2005-05-19T14:15:34Z</time>
      </trkpt>
      <trkpt lat="48.47317" lon="-2.00159">
        <ele>-1000</ele>
        <time>2005-05-19T14:15:34Z</time>
      </trkpt>
      <trkpt lat="48.47303" lon="-2.00189">
        <ele>-1000</ele>
        <time>2005-05-19T14:15:34Z</time>
      </trkpt>
      <trkpt lat="48.47278" lon="-2.00222">
        <ele>-1000</ele>
        <time>2005-05-19T14:15:34Z</time>
      </trkpt>
      <trkpt lat="48.47247" lon="-2.00239">
        <ele>-1000</ele>
        <time>2005-05-19T14:15:34Z</time>
      </trkpt>
      <trkpt lat="48.47212" lon="-2.00304">
        <ele>-1000</ele>
        <time>2005-05-19T14:15:34Z</time>
      </trkpt>
      <trkpt lat="48.47183" lon="-2.0037">
        <ele>-1000</ele>
        <time>2005-05-19T14:15:34Z</time>
      </trkpt>
      <trkpt lat="48.4716" lon="-2.00447">
        <ele>-1000</ele>
        <time>2005-05-19T14:15:34Z</time>
      </trkpt>
      <trkpt lat="48.47128" lon="-2.00502">
        <ele>-1000</ele>
        <time>2005-05-19T14:15:34Z</time>
      </trkpt>
      <trkpt lat="48.47089" lon="-2.00563">
        <ele>-1000</ele>
        <time>2005-05-19T14:15:34Z</time>
      </trkpt>
      <trkpt lat="48.47045" lon="-2.00649">
        <ele>-1000</ele>
        <time>2005-05-19T14:15:34Z</time>
      </trkpt>
      <trkpt lat="48.4702" lon="-2.00734">
        <ele>-1000</ele>
        <time>2005-05-19T14:15:34Z</time>
      </trkpt>
      <trkpt lat="48.46999" lon="-2.00817">
        <ele>-1000</ele>
        <time>2005-05-19T14:15:34Z</time>
      </trkpt>
      <trkpt lat="48.46992" lon="-2.00928">
        <ele>-1000</ele>
        <time>2005-05-19T14:15:34Z</time>
      </trkpt>
      <trkpt lat="48.46973" lon="-2.00981">
        <ele>-1000</ele>
        <time>2005-05-19T14:15:34Z</time>
      </trkpt>
      <trkpt lat="48.46965" lon="-2.01083">
        <ele>-1000</ele>
        <time>2005-05-19T14:15:34Z</time>
      </trkpt>
      <trkpt lat="48.46948" lon="-2.01125">
        <ele>-1000</ele>
        <time>2005-05-19T14:15:34Z</time>
      </trkpt>
      <trkpt lat="48.46936" lon="-2.01223">
        <ele>-1000</ele>
        <time>2005-05-19T14:15:34Z</time>
      </trkpt>
      <trkpt lat="48.4697" lon="-2.0123">
        <ele>-1000</ele>
        <time>2005-05-19T14:15:34Z</time>
      </trkpt>
      <trkpt lat="48.46972" lon="-2.01321">
        <ele>-1000</ele>
        <time>2005-05-19T14:15:34Z</time>
      </trkpt>
      <trkpt lat="48.46949" lon="-2.01429">
        <ele>-1000</ele>
        <time>2005-05-19T14:15:34Z</time>
      </trkpt>
      <trkpt lat="48.46944" lon="-2.0155">
        <ele>-1000</ele>
        <time>2005-05-19T14:15:34Z</time>
      </trkpt>
      <trkpt lat="48.46931" lon="-2.0165">
        <ele>-1000</ele>
        <time>2005-05-19T14:15:34Z</time>
      </trkpt>
      <trkpt lat="48.46924" lon="-2.01762">
        <ele>-1000</ele>
        <time>2005-05-19T14:15:34Z</time>
      </trkpt>
      <trkpt lat="48.46906" lon="-2.01875">
        <ele>-1000</ele>
        <time>2005-05-19T14:15:34Z</time>
      </trkpt>
      <trkpt lat="48.46878" lon="-2.01937">
        <ele>-1000</ele>
        <time>2005-05-19T14:15:34Z</time>
      </trkpt>
      <trkpt lat="48.46853" lon="-2.01985">
        <ele>-1000</ele>
        <time>2005-05-19T14:15:34Z</time>
      </trkpt>
      <trkpt lat="48.46784" lon="-2.02008">
        <ele>-1000</ele>
        <time>2005-05-19T14:15:34Z</time>
      </trkpt>
      <trkpt lat="48.46743" lon="-2.02063">
        <ele>-1000</ele>
        <time>2005-05-19T14:15:34Z</time>
      </trkpt>
      <trkpt lat="48.46685" lon="-2.02077">
        <ele>-1000</ele>
        <time>2005-05-19T14:15:34Z</time>
      </trkpt>
      <trkpt lat="48.46653" lon="-2.02028">
        <ele>-1000</ele>
        <time>2005-05-19T14:15:34Z</time>
      </trkpt>
      <trkpt lat="48.46606" lon="-2.02001">
        <ele>-1000</ele>
        <time>2005-05-19T14:15:34Z</time>
      </trkpt>
      <trkpt lat="48.46544" lon="-2.02034">
        <ele>-1000</ele>
        <time>2005-05-19T14:15:34Z</time>
      </trkpt>
      <trkpt lat="48.46479" lon="-2.02053">
        <ele>-1000</ele>
        <time>2005-05-19T14:15:34Z</time>
      </trkpt>
      <trkpt lat="48.46426" lon="-2.02047">
        <ele>-1000</ele>
        <time>2005-05-19T14:15:34Z</time>
      </trkpt>
      <trkpt lat="48.46364" lon="-2.02023">
        <ele>-1000</ele>
        <time>2005-05-19T14:15:34Z</time>
      </trkpt>
      <trkpt lat="48.46277" lon="-2.0199">
        <ele>-1000</ele>
        <time>2005-05-19T14:15:34Z</time>
      </trkpt>
      <trkpt lat="48.46279" lon="-2.02019">
        <ele>-1000</ele>
        <time>2005-05-19T14:15:34Z</time>
      </trkpt>
      <trkpt lat="48.46303" lon="-2.02058">
        <ele>-1000</ele>
        <time>2005-05-19T14:15:34Z</time>
      </trkpt>
      <trkpt lat="48.46288" lon="-2.02115">
        <ele>-1000</ele>
        <time>2005-05-19T14:15:34Z</time>
      </trkpt>
      <trkpt lat="48.4629" lon="-2.02167">
        <ele>-1000</ele>
        <time>2005-05-19T14:15:34Z</time>
      </trkpt>
      <trkpt lat="48.46312" lon="-2.02191">
        <ele>-1000</ele>
        <time>2005-05-19T14:15:34Z</time>
      </trkpt>
      <trkpt lat="48.46331" lon="-2.02227">
        <ele>-1000</ele>
        <time>2005-05-19T14:15:34Z</time>
      </trkpt>
      <trkpt lat="48.4635" lon="-2.02275">
        <ele>-1000</ele>
        <time>2005-05-19T14:15:34Z</time>
      </trkpt>
      <trkpt lat="48.46368" lon="-2.02321">
        <ele>-1000</ele>
        <time>2005-05-19T14:15:34Z</time>
      </trkpt>
      <trkpt lat="48.46365" lon="-2.02383">
        <ele>-1000</ele>
        <time>2005-05-19T14:15:34Z</time>
      </trkpt>
      <trkpt lat="48.46375" lon="-2.0244">
        <ele>-1000</ele>
        <time>2005-05-19T14:15:34Z</time>
      </trkpt>
      <trkpt lat="48.46391" lon="-2.02519">
        <ele>-1000</ele>
        <time>2005-05-19T14:15:34Z</time>
      </trkpt>
      <trkpt lat="48.46407" lon="-2.02572">
        <ele>-1000</ele>
        <time>2005-05-19T14:15:34Z</time>
      </trkpt>
      <trkpt lat="48.46425" lon="-2.02636">
        <ele>-1000</ele>
        <time>2005-05-19T14:15:34Z</time>
      </trkpt>
      <trkpt lat="48.4644" lon="-2.02662">
        <ele>-1000</ele>
        <time>2005-05-19T14:15:34Z</time>
      </trkpt>
      <trkpt lat="48.46413" lon="-2.02688">
        <ele>-1000</ele>
        <time>2005-05-19T14:15:34Z</time>
      </trkpt>
      <trkpt lat="48.46381" lon="-2.02708">
        <ele>-1000</ele>
        <time>2005-05-19T14:15:34Z</time>
      </trkpt>
      <trkpt lat="48.46353" lon="-2.0273">
        <ele>-1000</ele>
        <time>2005-05-19T14:15:34Z</time>
      </trkpt>
      <trkpt lat="48.46328" lon="-2.02771">
        <ele>-1000</ele>
        <time>2005-05-19T14:15:34Z</time>
      </trkpt>
      <trkpt lat="48.46283" lon="-2.02805">
        <ele>-1000</ele>
        <time>2005-05-19T14:15:34Z</time>
      </trkpt>
      <trkpt lat="48.46253" lon="-2.02834">
        <ele>-1000</ele>
        <time>2005-05-19T14:15:34Z</time>
      </trkpt>
      <trkpt lat="48.46219" lon="-2.02857">
        <ele>-1000</ele>
        <time>2005-05-19T14:15:34Z</time>
      </trkpt>
      <trkpt lat="48.46155" lon="-2.02902">
        <ele>-1000</ele>
        <time>2005-05-19T14:15:34Z</time>
      </trkpt>
      <trkpt lat="48.46137" lon="-2.02967">
        <ele>-1000</ele>
        <time>2005-05-19T14:15:34Z</time>
      </trkpt>
      <trkpt lat="48.46128" lon="-2.03044">
        <ele>-1000</ele>
        <time>2005-05-19T14:15:34Z</time>
      </trkpt>
      <trkpt lat="48.46111" lon="-2.03136">
        <ele>-1000</ele>
        <time>2005-05-19T14:15:34Z</time>
      </trkpt>
      <trkpt lat="48.46103" lon="-2.03221">
        <ele>-1000</ele>
        <time>2005-05-19T14:15:34Z</time>
      </trkpt>
      <trkpt lat="48.46088" lon="-2.03279">
        <ele>-1000</ele>
        <time>2005-05-19T14:15:34Z</time>
      </trkpt>
      <trkpt lat="48.46026" lon="-2.034">
        <ele>-1000</ele>
        <time>2005-05-19T14:15:34Z</time>
      </trkpt>
      <trkpt lat="48.45942" lon="-2.035">
        <ele>-1000</ele>
        <time>2005-05-19T14:15:34Z</time>
      </trkpt>
      <trkpt lat="48.45876" lon="-2.03601">
        <ele>-1000</ele>
        <time>2005-05-19T14:15:34Z</time>
      </trkpt>
      <trkpt lat="48.45805" lon="-2.03658">
        <ele>-1000</ele>
        <time>2005-05-19T14:15:34Z</time>
      </trkpt>
      <trkpt lat="48.45758" lon="-2.03692">
        <ele>-1000</ele>
        <time>2005-05-19T14:15:34Z</time>
      </trkpt>
      <trkpt lat="48.45699" lon="-2.03722">
        <ele>-1000</ele>
        <time>2005-05-19T14:15:34Z</time>
      </trkpt>
      <trkpt lat="48.45644" lon="-2.03739">
        <ele>-1000</ele>
        <time>2005-05-19T14:15:34Z</time>
      </trkpt>
      <trkpt lat="48.45587" lon="-2.03765">
        <ele>-1000</ele>
        <time>2005-05-19T14:15:34Z</time>
      </trkpt>
      <trkpt lat="48.45631" lon="-2.03837">
        <ele>-1000</ele>
        <time>2005-05-19T14:15:34Z</time>
      </trkpt>
    </trkseg>
  </trk>
</gpx>